Time,TemperatureF,DewpointF,PressureIn,WindDirection,WindDirectionDegrees,WindSpeedMPH,WindSpeedGustMPH,Humidity,HourlyPrecipIn,Conditions,Clouds,dailyrainin,SoftwareType,DateUTC
2013-07-19 00:00:00,75.6,74.0,30.15,SW,216,0.0,0.0,95,0.00,,---,0.00,VWS V14.01,2013-07-19 04:00:00,
2013-07-19 00:01:00,75.6,74.0,30.15,SW,216,0.0,0.0,95,0.00,,---,0.00,VWS V14.01,2013-07-19 04:01:00,
2013-07-19 00:06:00,75.6,74.0,30.15,SW,216,0.0,0.0,95,0.00,,---,0.00,VWS V14.01,2013-07-19 04:06:00,
2013-07-19 00:11:00,75.6,73.7,30.15,SW,216,0.0,0.0,94,0.00,,---,0.00,VWS V14.01,2013-07-19 04:11:00,
2013-07-19 00:16:00,75.6,73.7,30.15,SW,216,0.0,0.0,94,0.00,,---,0.00,VWS V14.01,2013-07-19 04:16:00,
2013-07-19 00:21:00,75.4,73.5,30.15,SW,216,0.0,0.0,94,0.00,,---,0.00,VWS V14.01,2013-07-19 04:21:00,
2013-07-19 00:22:00,75.4,73.5,30.15,SW,216,0.0,0.0,94,0.00,,---,0.00,VWS V14.01,2013-07-19 04:22:00,
2013-07-19 00:26:00,75.4,73.5,30.15,SW,216,0.0,0.0,94,0.00,,---,0.00,VWS V14.01,2013-07-19 04:26:00,
2013-07-19 00:27:00,75.4,73.5,30.15,SW,216,0.0,0.0,94,0.00,,---,0.00,VWS V14.01,2013-07-19 04:27:00,
2013-07-19 00:31:00,75.2,73.4,30.15,SW,216,0.0,0.0,94,0.00,,---,0.00,VWS V14.01,2013-07-19 04:31:00,
2013-07-19 00:32:00,75.2,73.4,30.15,SW,216,0.0,0.0,94,0.00,,---,0.00,VWS V14.01,2013-07-19 04:32:00,
2013-07-19 00:36:00,75.2,73.4,30.15,SW,216,0.0,0.0,94,0.00,,---,0.00,VWS V14.01,2013-07-19 04:36:00,
2013-07-19 00:37:00,75.2,73.4,30.15,SW,216,0.0,0.0,94,0.00,,---,0.00,VWS V14.01,2013-07-19 04:37:00,
2013-07-19 00:42:00,75.2,73.4,30.15,SW,216,0.0,0.0,94,0.00,,---,0.00,VWS V14.01,2013-07-19 04:42:00,
2013-07-19 00:47:00,75.2,73.4,30.15,SW,216,0.0,0.0,94,0.00,,---,0.00,VWS V14.01,2013-07-19 04:47:00,
2013-07-19 00:48:00,75.2,73.4,30.15,SW,216,0.0,0.0,94,0.00,,---,0.00,VWS V14.01,2013-07-19 04:48:00,
2013-07-19 00:52:00,75.2,73.4,30.15,SW,216,0.0,0.0,94,0.00,,---,0.00,VWS V14.01,2013-07-19 04:52:00,
2013-07-19 00:53:00,75.2,73.4,30.15,SW,216,0.0,0.0,94,0.00,,---,0.00,VWS V14.01,2013-07-19 04:53:00,
2013-07-19 00:57:00,75.0,73.5,30.15,SW,216,0.0,0.0,95,0.00,,---,0.00,VWS V14.01,2013-07-19 04:57:00,
2013-07-19 00:58:00,75.0,73.5,30.15,SW,216,0.0,0.0,95,0.00,,---,0.00,VWS V14.01,2013-07-19 04:58:00,
2013-07-19 01:02:00,75.0,73.5,30.15,SW,216,0.0,0.0,95,0.00,,---,0.00,VWS V14.01,2013-07-19 05:02:00,
2013-07-19 01:03:00,75.0,73.5,30.15,SW,216,0.0,0.0,95,0.00,,---,0.00,VWS V14.01,2013-07-19 05:03:00,
2013-07-19 01:07:00,75.2,73.4,30.15,SW,216,0.0,0.0,94,0.00,,---,0.00,VWS V14.01,2013-07-19 05:07:00,
2013-07-19 01:08:00,75.2,73.4,30.15,SW,216,0.0,0.0,94,0.00,,---,0.00,VWS V14.01,2013-07-19 05:08:00,
2013-07-19 01:12:00,75.2,73.4,30.15,SW,216,0.0,0.0,94,0.00,,---,0.00,VWS V14.01,2013-07-19 05:12:00,
2013-07-19 01:13:00,75.2,73.4,30.15,SW,216,0.0,0.0,94,0.00,,---,0.00,VWS V14.01,2013-07-19 05:13:00,
2013-07-19 01:17:00,75.2,73.4,30.15,SW,216,0.0,0.0,94,0.00,,---,0.00,VWS V14.01,2013-07-19 05:17:00,
2013-07-19 01:18:00,75.2,73.4,30.15,SW,216,0.0,0.0,94,0.00,,---,0.00,VWS V14.01,2013-07-19 05:18:00,
2013-07-19 01:22:00,75.4,73.8,30.15,SW,216,0.0,0.0,95,0.00,,---,0.00,VWS V14.01,2013-07-19 05:22:00,
2013-07-19 01:23:00,75.4,73.8,30.15,SW,216,0.0,0.0,95,0.00,,---,0.00,VWS V14.01,2013-07-19 05:23:00,
2013-07-19 01:28:00,75.2,73.7,30.15,SW,216,0.0,0.0,95,0.00,,---,0.00,VWS V14.01,2013-07-19 05:28:00,
2013-07-19 01:29:00,75.2,73.7,30.15,SW,216,0.0,0.0,95,0.00,,---,0.00,VWS V14.01,2013-07-19 05:29:00,
2013-07-19 01:33:00,75.2,73.7,30.15,SW,216,0.0,0.0,95,0.00,,---,0.00,VWS V14.01,2013-07-19 05:33:00,
2013-07-19 01:34:00,75.2,73.7,30.15,SW,216,0.0,0.0,95,0.00,,---,0.00,VWS V14.01,2013-07-19 05:34:00,
2013-07-19 01:38:00,75.2,73.7,30.15,SW,216,0.0,0.0,95,0.00,,---,0.00,VWS V14.01,2013-07-19 05:38:00,
2013-07-19 01:39:00,75.2,73.7,30.15,SW,216,0.0,0.0,95,0.00,,---,0.00,VWS V14.01,2013-07-19 05:39:00,
2013-07-19 01:43:00,75.4,73.8,30.15,SW,216,0.0,0.0,95,0.00,,---,0.00,VWS V14.01,2013-07-19 05:43:00,
2013-07-19 01:44:00,75.2,73.7,30.15,SW,216,0.0,0.0,95,0.00,,---,0.00,VWS V14.01,2013-07-19 05:44:00,
2013-07-19 01:48:00,75.2,73.7,30.15,SW,216,0.0,0.0,95,0.00,,---,0.00,VWS V14.01,2013-07-19 05:48:00,
2013-07-19 01:49:00,75.2,73.7,30.15,SW,216,0.0,0.0,95,0.00,,---,0.00,VWS V14.01,2013-07-19 05:49:00,
2013-07-19 01:53:00,75.2,73.7,30.15,SW,216,0.0,0.0,95,0.00,,---,0.00,VWS V14.01,2013-07-19 05:53:00,
2013-07-19 01:54:00,75.4,73.8,30.15,SW,216,0.0,0.0,95,0.00,,---,0.00,VWS V14.01,2013-07-19 05:54:00,
2013-07-19 01:58:00,75.2,73.7,30.15,SW,216,0.0,0.0,95,0.00,,---,0.00,VWS V14.01,2013-07-19 05:58:00,
2013-07-19 01:59:00,75.2,73.7,30.15,SW,218,0.0,0.0,95,0.00,,---,0.00,VWS V14.01,2013-07-19 05:59:00,
2013-07-19 02:03:00,75.2,73.7,30.15,West,281,0.0,0.0,95,0.00,,---,0.00,VWS V14.01,2013-07-19 06:03:00,
2013-07-19 02:04:00,75.2,73.7,30.15,West,281,0.0,0.0,95,0.00,,---,0.00,VWS V14.01,2013-07-19 06:04:00,
2013-07-19 02:08:00,75.2,73.7,30.15,WNW,297,2.7,2.7,95,0.00,,---,0.00,VWS V14.01,2013-07-19 06:08:00,
2013-07-19 02:09:00,75.2,73.7,30.15,WNW,298,2.2,2.7,95,0.00,,---,0.00,VWS V14.01,2013-07-19 06:09:00,
2013-07-19 02:10:00,75.2,73.7,30.15,WNW,298,2.2,2.7,95,0.00,,---,0.00,VWS V14.01,2013-07-19 06:10:00,
2013-07-19 02:13:00,75.2,73.7,30.15,WNW,298,0.0,0.0,95,0.00,,---,0.00,VWS V14.01,2013-07-19 06:13:00,
2013-07-19 02:14:00,75.2,73.7,30.15,WNW,298,0.0,0.0,95,0.00,,---,0.00,VWS V14.01,2013-07-19 06:14:00,
2013-07-19 02:15:00,75.2,73.7,30.15,WNW,298,0.0,0.0,95,0.00,,---,0.00,VWS V14.01,2013-07-19 06:15:00,
2013-07-19 02:18:00,75.2,73.7,30.15,WNW,298,3.6,3.6,95,0.00,,---,0.00,VWS V14.01,2013-07-19 06:18:00,
2013-07-19 02:19:00,75.2,73.7,30.15,WNW,298,0.0,2.2,95,0.00,,---,0.00,VWS V14.01,2013-07-19 06:19:00,
2013-07-19 02:20:00,75.2,73.7,30.15,WNW,298,0.0,0.0,95,0.00,,---,0.00,VWS V14.01,2013-07-19 06:20:00,
2013-07-19 02:23:00,75.2,73.7,30.15,NW,313,2.7,2.7,95,0.00,,---,0.00,VWS V14.01,2013-07-19 06:23:00,
2013-07-19 02:24:00,75.2,73.7,30.15,NW,313,2.7,2.7,95,0.00,,---,0.00,VWS V14.01,2013-07-19 06:24:00,
2013-07-19 02:25:00,75.2,73.7,30.15,NW,313,0.0,2.7,95,0.00,,---,0.00,VWS V14.01,2013-07-19 06:25:00,
2013-07-19 02:28:00,75.2,73.7,30.15,NW,313,0.0,0.0,95,0.00,,---,0.00,VWS V14.01,2013-07-19 06:28:00,
2013-07-19 02:29:00,75.2,73.7,30.15,NW,313,0.0,0.0,95,0.00,,---,0.00,VWS V14.01,2013-07-19 06:29:00,
2013-07-19 02:30:00,75.2,73.7,30.15,NW,313,0.0,0.0,95,0.00,,---,0.00,VWS V14.01,2013-07-19 06:30:00,
2013-07-19 02:34:00,75.2,73.7,30.15,NW,313,0.0,0.0,95,0.00,,---,0.00,VWS V14.01,2013-07-19 06:34:00,
2013-07-19 02:35:00,75.2,73.7,30.15,NW,313,0.0,0.0,95,0.00,,---,0.00,VWS V14.01,2013-07-19 06:35:00,
2013-07-19 02:39:00,75.2,73.7,30.15,NW,313,0.0,0.0,95,0.00,,---,0.00,VWS V14.01,2013-07-19 06:39:00,
2013-07-19 02:40:00,75.2,73.7,30.15,NW,313,0.0,0.0,95,0.00,,---,0.00,VWS V14.01,2013-07-19 06:40:00,
2013-07-19 02:45:00,75.2,73.7,30.15,NW,313,0.0,0.0,95,0.00,,---,0.00,VWS V14.01,2013-07-19 06:45:00,
2013-07-19 02:50:00,75.2,74.0,30.15,NW,313,0.0,0.0,96,0.00,,---,0.00,VWS V14.01,2013-07-19 06:50:00,
2013-07-19 02:55:00,75.2,74.0,30.15,NW,313,0.0,0.0,96,0.00,,---,0.00,VWS V14.01,2013-07-19 06:55:00,
2013-07-19 02:56:00,75.2,74.0,30.15,NW,313,0.0,0.0,96,0.00,,---,0.00,VWS V14.01,2013-07-19 06:56:00,
2013-07-19 03:00:00,75.2,74.0,30.15,NW,313,0.0,0.0,96,0.00,,---,0.00,VWS V14.01,2013-07-19 07:00:00,
2013-07-19 03:01:00,75.2,74.0,30.15,NW,313,0.0,0.0,96,0.00,,---,0.00,VWS V14.01,2013-07-19 07:01:00,
2013-07-19 03:05:00,75.2,74.0,30.15,NW,313,0.0,0.0,96,0.00,,---,0.00,VWS V14.01,2013-07-19 07:05:00,
2013-07-19 03:06:00,75.2,74.0,30.15,NW,313,0.0,0.0,96,0.00,,---,0.00,VWS V14.01,2013-07-19 07:06:00,
2013-07-19 03:10:00,75.2,74.0,30.15,NW,313,0.0,0.0,96,0.00,,---,0.00,VWS V14.01,2013-07-19 07:10:00,
2013-07-19 03:11:00,75.2,74.0,30.15,NW,313,0.0,0.0,96,0.00,,---,0.00,VWS V14.01,2013-07-19 07:11:00,
2013-07-19 03:15:00,75.0,73.8,30.15,NW,313,0.0,0.0,96,0.00,,---,0.00,VWS V14.01,2013-07-19 07:15:00,
2013-07-19 03:16:00,75.0,73.8,30.15,NW,313,0.0,0.0,96,0.00,,---,0.00,VWS V14.01,2013-07-19 07:16:00,
2013-07-19 03:20:00,75.0,73.8,30.15,NW,313,0.0,0.0,96,0.00,,---,0.20,VWS V14.01,2013-07-19 07:20:00,
2013-07-19 03:21:00,75.0,73.8,30.15,NW,313,0.0,0.0,96,0.00,,---,0.00,VWS V14.01,2013-07-19 07:21:00,
2013-07-19 03:25:00,75.0,73.8,30.15,NW,313,0.0,0.0,96,0.00,,---,0.00,VWS V14.01,2013-07-19 07:25:00,
2013-07-19 03:26:00,75.0,73.8,30.15,NW,313,0.0,0.0,96,0.00,,---,0.00,VWS V14.01,2013-07-19 07:26:00,
2013-07-19 03:30:00,75.0,73.8,30.15,NW,313,0.0,0.0,96,0.00,,---,0.00,VWS V14.01,2013-07-19 07:30:00,
2013-07-19 03:31:00,75.0,73.8,30.15,NW,313,0.0,0.0,96,0.00,,---,0.00,VWS V14.01,2013-07-19 07:31:00,
2013-07-19 03:32:00,75.0,73.8,30.15,NW,313,0.0,0.0,96,0.00,,---,0.00,VWS V14.01,2013-07-19 07:32:00,
2013-07-19 03:36:00,75.0,73.8,30.15,NW,313,0.0,0.0,96,0.00,,---,0.00,VWS V14.01,2013-07-19 07:36:00,
2013-07-19 03:37:00,75.0,73.8,30.15,NW,313,0.0,0.0,96,0.00,,---,0.00,VWS V14.01,2013-07-19 07:37:00,
2013-07-19 03:41:00,75.0,73.8,30.15,NW,313,0.0,0.0,96,0.00,,---,0.00,VWS V14.01,2013-07-19 07:41:00,
2013-07-19 03:42:00,75.0,73.8,30.15,NW,313,0.0,0.0,96,0.00,,---,0.00,VWS V14.01,2013-07-19 07:42:00,
2013-07-19 03:46:00,75.0,73.8,30.15,NW,313,0.0,0.0,96,0.00,,---,0.00,VWS V14.01,2013-07-19 07:46:00,
2013-07-19 03:47:00,75.0,73.8,30.15,NW,313,0.0,0.0,96,0.00,,---,0.00,VWS V14.01,2013-07-19 07:47:00,
2013-07-19 03:51:00,75.0,73.8,30.15,NW,313,0.0,0.0,96,0.00,,---,0.00,VWS V14.01,2013-07-19 07:51:00,
2013-07-19 03:52:00,75.0,73.8,30.15,NW,313,0.0,0.0,96,0.00,,---,0.00,VWS V14.01,2013-07-19 07:52:00,
2013-07-19 03:53:00,75.0,73.8,30.15,NW,313,0.0,0.0,96,0.00,,---,0.00,VWS V14.01,2013-07-19 07:53:00,
2013-07-19 03:56:00,75.0,73.8,30.12,NW,313,0.0,0.0,96,0.00,,---,0.00,VWS V14.01,2013-07-19 07:56:00,
2013-07-19 03:57:00,75.0,73.8,30.12,NW,313,0.0,0.0,96,0.00,,---,0.00,VWS V14.01,2013-07-19 07:57:00,
2013-07-19 03:58:00,75.0,73.8,30.12,NW,313,0.0,0.0,96,0.00,,---,0.00,VWS V14.01,2013-07-19 07:58:00,
2013-07-19 04:01:00,75.0,73.8,30.12,NW,313,0.0,0.0,96,0.00,,---,0.00,VWS V14.01,2013-07-19 08:01:00,
2013-07-19 04:02:00,75.0,73.8,30.12,NW,313,0.0,0.0,96,0.00,,---,0.00,VWS V14.01,2013-07-19 08:02:00,
2013-07-19 04:03:00,75.0,73.8,30.12,NW,313,0.0,0.0,96,0.00,,---,0.00,VWS V14.01,2013-07-19 08:03:00,
2013-07-19 04:06:00,75.0,73.8,30.12,NW,313,0.0,0.0,96,0.00,,---,0.00,VWS V14.01,2013-07-19 08:06:00,
2013-07-19 04:07:00,75.0,73.8,30.12,NW,313,0.0,0.0,96,0.00,,---,0.00,VWS V14.01,2013-07-19 08:07:00,
2013-07-19 04:08:00,75.0,73.8,30.12,NW,313,0.0,0.0,96,0.00,,---,0.00,VWS V14.01,2013-07-19 08:08:00,
2013-07-19 04:11:00,75.0,73.8,30.12,NW,313,0.0,0.0,96,0.00,,---,0.00,VWS V14.01,2013-07-19 08:11:00,
2013-07-19 04:12:00,75.0,73.8,30.12,NW,313,0.0,0.0,96,0.00,,---,0.00,VWS V14.01,2013-07-19 08:12:00,
2013-07-19 04:13:00,75.0,73.8,30.12,NW,313,0.0,0.0,96,0.00,,---,0.00,VWS V14.01,2013-07-19 08:13:00,
2013-07-19 04:16:00,75.2,74.0,30.12,NW,313,0.0,0.0,96,0.00,,---,0.00,VWS V14.01,2013-07-19 08:16:00,
2013-07-19 04:18:00,75.2,74.0,30.12,NW,313,0.0,0.0,96,0.00,,---,0.00,VWS V14.01,2013-07-19 08:18:00,
2013-07-19 04:21:00,75.2,74.0,30.12,NW,313,0.0,0.0,96,0.00,,---,0.00,VWS V14.01,2013-07-19 08:21:00,
2013-07-19 04:22:00,75.2,74.0,30.12,NW,313,0.0,0.0,96,0.00,,---,0.00,VWS V14.01,2013-07-19 08:22:00,
2013-07-19 04:23:00,75.2,74.0,30.12,NW,313,0.0,0.0,96,0.00,,---,0.00,VWS V14.01,2013-07-19 08:23:00,
2013-07-19 04:27:00,75.2,74.0,30.15,NW,313,0.0,0.0,96,0.00,,---,0.00,VWS V14.01,2013-07-19 08:27:00,
2013-07-19 04:28:00,75.2,74.0,30.15,NW,313,0.0,0.0,96,0.00,,---,0.00,VWS V14.01,2013-07-19 08:28:00,
2013-07-19 04:32:00,75.2,74.0,30.15,NW,313,0.0,0.0,96,0.00,,---,0.00,VWS V14.01,2013-07-19 08:32:00,
2013-07-19 04:33:00,75.2,74.0,30.15,NW,313,0.0,0.0,96,0.00,,---,0.00,VWS V14.01,2013-07-19 08:33:00,
2013-07-19 04:37:00,75.2,74.0,30.15,NW,313,0.0,0.0,96,0.00,,---,0.00,VWS V14.01,2013-07-19 08:37:00,
2013-07-19 04:38:00,75.0,74.1,30.15,NW,313,0.0,0.0,97,0.00,,---,0.00,VWS V14.01,2013-07-19 08:38:00,
2013-07-19 04:42:00,75.0,74.1,30.15,NW,313,0.0,0.0,97,0.00,,---,0.00,VWS V14.01,2013-07-19 08:42:00,
2013-07-19 04:43:00,75.0,74.1,30.15,NW,313,0.0,0.0,97,0.00,,---,0.00,VWS V14.01,2013-07-19 08:43:00,
2013-07-19 04:44:00,75.0,74.1,30.15,NW,313,0.0,0.0,97,0.00,,---,0.00,VWS V14.01,2013-07-19 08:44:00,
2013-07-19 04:47:00,75.0,74.1,30.15,NW,313,0.0,0.0,97,0.00,,---,0.00,VWS V14.01,2013-07-19 08:47:00,
2013-07-19 04:48:00,75.0,74.1,30.15,NW,313,0.0,0.0,97,0.00,,---,0.00,VWS V14.01,2013-07-19 08:48:00,
2013-07-19 04:49:00,75.0,74.1,30.15,NW,313,0.0,0.0,97,0.00,,---,0.00,VWS V14.01,2013-07-19 08:49:00,
2013-07-19 04:52:00,75.0,74.1,30.15,NW,313,0.0,0.0,97,0.00,,---,0.00,VWS V14.01,2013-07-19 08:52:00,
2013-07-19 04:53:00,74.8,73.9,30.15,NW,313,0.0,0.0,97,0.00,,---,0.00,VWS V14.01,2013-07-19 08:53:00,
2013-07-19 04:54:00,74.8,73.9,30.15,NW,313,0.0,0.0,97,0.00,,---,0.00,VWS V14.01,2013-07-19 08:54:00,
2013-07-19 04:57:00,74.8,73.9,30.15,NW,313,0.0,0.0,97,0.00,,---,0.00,VWS V14.01,2013-07-19 08:57:00,
2013-07-19 04:58:00,74.8,73.9,30.15,NW,313,0.0,0.0,97,0.00,,---,0.00,VWS V14.01,2013-07-19 08:58:00,
2013-07-19 04:59:00,74.8,73.9,30.15,NW,313,0.0,0.0,97,0.00,,---,0.00,VWS V14.01,2013-07-19 08:59:00,
2013-07-19 05:03:00,74.8,73.9,30.15,NW,313,0.0,0.0,97,0.00,,---,0.00,VWS V14.01,2013-07-19 09:03:00,
2013-07-19 05:04:00,74.8,73.9,30.15,NW,313,0.0,0.0,97,0.00,,---,0.00,VWS V14.01,2013-07-19 09:04:00,
2013-07-19 05:08:00,74.8,73.9,30.15,NW,313,0.0,0.0,97,0.00,,---,0.00,VWS V14.01,2013-07-19 09:08:00,
2013-07-19 05:09:00,74.8,73.9,30.15,NW,313,0.0,0.0,97,0.00,,---,0.00,VWS V14.01,2013-07-19 09:09:00,
2013-07-19 05:13:00,74.8,73.9,30.15,NW,313,0.0,0.0,97,0.00,,---,0.00,VWS V14.01,2013-07-19 09:13:00,
2013-07-19 05:14:00,74.8,73.9,30.15,NW,313,0.0,0.0,97,0.00,,---,0.00,VWS V14.01,2013-07-19 09:14:00,
2013-07-19 05:18:00,74.8,73.9,30.15,NW,313,0.0,0.0,97,0.00,,---,0.00,VWS V14.01,2013-07-19 09:18:00,
2013-07-19 05:19:00,74.8,73.9,30.15,NW,313,0.0,0.0,97,0.00,,---,0.00,VWS V14.01,2013-07-19 09:19:00,
2013-07-19 05:20:00,74.8,73.9,30.15,NW,313,0.0,0.0,97,0.00,,---,0.00,VWS V14.01,2013-07-19 09:20:00,
2013-07-19 05:23:00,74.8,73.9,30.15,NW,313,0.0,0.0,97,0.00,,---,0.00,VWS V14.01,2013-07-19 09:23:00,
2013-07-19 05:24:00,74.8,73.9,30.15,NW,313,0.0,0.0,97,0.00,,---,0.20,VWS V14.01,2013-07-19 09:24:00,
2013-07-19 05:25:00,74.8,73.9,30.15,NW,313,0.0,0.0,97,0.00,,---,0.00,VWS V14.01,2013-07-19 09:25:00,
2013-07-19 05:28:00,74.8,73.9,30.12,NW,313,0.0,0.0,97,0.00,,---,0.00,VWS V14.01,2013-07-19 09:28:00,
2013-07-19 05:29:00,74.8,73.9,30.12,NW,313,0.0,0.0,97,0.00,,---,0.00,VWS V14.01,2013-07-19 09:29:00,
2013-07-19 05:30:00,74.8,73.9,30.12,NW,313,0.0,0.0,97,0.00,,---,0.00,VWS V14.01,2013-07-19 09:30:00,
2013-07-19 05:33:00,74.8,73.9,30.12,NW,313,0.0,0.0,97,0.00,,---,0.00,VWS V14.01,2013-07-19 09:33:00,
2013-07-19 05:35:00,74.8,73.9,30.12,NW,313,0.0,0.0,97,0.00,,---,0.00,VWS V14.01,2013-07-19 09:35:00,
2013-07-19 05:38:00,74.8,73.9,30.12,NW,313,0.0,0.0,97,0.00,,---,0.00,VWS V14.01,2013-07-19 09:38:00,
2013-07-19 05:40:00,74.8,73.9,30.12,NW,313,0.0,0.0,97,0.00,,---,0.00,VWS V14.01,2013-07-19 09:40:00,
2013-07-19 05:41:00,74.8,73.9,30.12,NW,313,0.0,0.0,97,0.00,,---,0.00,VWS V14.01,2013-07-19 09:41:00,
2013-07-19 05:43:00,74.8,73.9,30.15,NW,313,0.0,0.0,97,0.00,,---,0.00,VWS V14.01,2013-07-19 09:43:00,
2013-07-19 05:45:00,74.8,73.9,30.15,NW,313,0.0,0.0,97,0.00,,---,0.00,VWS V14.01,2013-07-19 09:45:00,
2013-07-19 05:46:00,74.8,73.9,30.15,NW,313,0.0,0.0,97,0.00,,---,0.00,VWS V14.01,2013-07-19 09:46:00,
2013-07-19 05:48:00,74.8,73.9,30.15,NW,313,0.0,0.0,97,0.00,,---,0.00,VWS V14.01,2013-07-19 09:48:00,
2013-07-19 05:50:00,74.8,73.9,30.15,NW,313,0.0,0.0,97,0.00,,---,0.00,VWS V14.01,2013-07-19 09:50:00,
2013-07-19 05:51:00,74.8,73.9,30.15,NW,313,0.0,0.0,97,0.00,,---,0.00,VWS V14.01,2013-07-19 09:51:00,
2013-07-19 05:54:00,74.8,73.9,30.15,NW,313,0.0,0.0,97,0.00,,---,0.00,VWS V14.01,2013-07-19 09:54:00,
2013-07-19 05:55:00,74.8,73.9,30.15,NW,313,0.0,0.0,97,0.00,,---,0.00,VWS V14.01,2013-07-19 09:55:00,
2013-07-19 05:56:00,74.8,73.9,30.12,NW,313,0.0,0.0,97,0.00,,---,0.00,VWS V14.01,2013-07-19 09:56:00,
2013-07-19 05:59:00,74.8,73.9,30.12,NW,313,0.0,0.0,97,0.00,,---,0.00,VWS V14.01,2013-07-19 09:59:00,
2013-07-19 06:00:00,74.8,73.9,30.12,NW,313,0.0,0.0,97,0.00,,---,0.00,VWS V14.01,2013-07-19 10:00:00,
2013-07-19 06:01:00,74.8,73.9,30.12,NW,313,0.0,0.0,97,0.00,,---,0.00,VWS V14.01,2013-07-19 10:01:00,
2013-07-19 06:04:00,74.8,73.9,30.12,NW,313,0.0,0.0,97,0.00,,---,0.00,VWS V14.01,2013-07-19 10:04:00,
2013-07-19 06:05:00,74.8,73.9,30.12,NW,313,0.0,0.0,97,0.00,,---,0.00,VWS V14.01,2013-07-19 10:05:00,
2013-07-19 06:07:00,74.8,73.9,30.12,NW,313,0.0,0.0,97,0.00,,---,0.00,VWS V14.01,2013-07-19 10:07:00,
2013-07-19 06:09:00,74.7,73.8,30.12,NW,313,0.0,0.0,97,0.00,,---,0.00,VWS V14.01,2013-07-19 10:09:00,
2013-07-19 06:10:00,74.8,73.9,30.12,NW,313,0.0,0.0,97,0.00,,---,0.00,VWS V14.01,2013-07-19 10:10:00,
2013-07-19 06:12:00,74.7,73.8,30.15,NW,313,0.0,0.0,97,0.00,,---,0.00,VWS V14.01,2013-07-19 10:12:00,
2013-07-19 06:14:00,74.7,73.8,30.15,NW,313,0.0,0.0,97,0.00,,---,0.00,VWS V14.01,2013-07-19 10:14:00,
2013-07-19 06:15:00,74.8,73.9,30.15,NW,313,0.0,0.0,97,0.00,,---,0.00,VWS V14.01,2013-07-19 10:15:00,
2013-07-19 06:16:00,74.8,73.9,30.15,NW,313,0.0,0.0,97,0.00,,---,0.00,VWS V14.01,2013-07-19 10:16:00,
2013-07-19 06:17:00,74.8,73.9,30.15,NW,313,0.0,0.0,97,0.00,,---,0.00,VWS V14.01,2013-07-19 10:17:00,
2013-07-19 06:19:00,74.8,73.9,30.15,South,178,2.2,2.2,97,0.00,,---,0.00,VWS V14.01,2013-07-19 10:19:00,
2013-07-19 06:20:00,74.8,73.9,30.15,South,190,2.7,2.7,97,0.00,,---,0.00,VWS V14.01,2013-07-19 10:20:00,
2013-07-19 06:21:00,74.8,73.9,30.15,SSW,205,0.0,0.0,97,0.00,,---,0.00,VWS V14.01,2013-07-19 10:21:00,
2013-07-19 06:22:00,74.8,73.9,30.15,SSW,205,0.0,0.0,97,0.00,,---,0.00,VWS V14.01,2013-07-19 10:22:00,
2013-07-19 06:25:00,74.8,73.9,30.15,SSW,208,0.0,0.0,97,0.00,,---,0.00,VWS V14.01,2013-07-19 10:25:00,
2013-07-19 06:26:00,74.8,73.9,30.15,NNW,342,0.0,2.7,97,0.00,,---,0.00,VWS V14.01,2013-07-19 10:26:00,
2013-07-19 06:27:00,74.8,73.9,30.15,West,270,2.7,4.5,97,0.00,,---,0.00,VWS V14.01,2013-07-19 10:27:00,
2013-07-19 06:30:00,74.8,73.9,30.15,NW,304,0.0,0.0,97,0.00,,---,0.00,VWS V14.01,2013-07-19 10:30:00,
2013-07-19 06:31:00,74.8,73.9,30.15,NW,304,2.2,2.2,97,0.00,,---,0.00,VWS V14.01,2013-07-19 10:31:00,
2013-07-19 06:32:00,74.8,73.9,30.15,NW,304,0.0,0.0,97,0.00,,---,0.00,VWS V14.01,2013-07-19 10:32:00,
2013-07-19 06:35:00,74.8,73.9,30.15,NW,304,0.0,0.0,97,0.00,,---,0.00,VWS V14.01,2013-07-19 10:35:00,
2013-07-19 06:36:00,74.8,73.9,30.15,NW,304,2.7,2.7,97,0.00,,---,0.00,VWS V14.01,2013-07-19 10:36:00,
2013-07-19 06:37:00,74.8,73.9,30.15,NW,304,0.0,0.0,97,0.00,,---,0.00,VWS V14.01,2013-07-19 10:37:00,
2013-07-19 06:40:00,74.8,73.9,30.15,NW,305,0.0,0.0,97,0.00,,---,0.00,VWS V14.01,2013-07-19 10:40:00,
2013-07-19 06:41:00,74.8,73.9,30.15,NW,305,0.0,0.0,97,0.00,,---,0.00,VWS V14.01,2013-07-19 10:41:00,
2013-07-19 06:42:00,74.8,73.9,30.15,NW,305,0.0,0.0,97,0.00,,---,0.00,VWS V14.01,2013-07-19 10:42:00,
2013-07-19 06:45:00,74.8,73.9,30.15,NW,305,0.0,0.0,97,0.00,,---,0.00,VWS V14.01,2013-07-19 10:45:00,
2013-07-19 06:46:00,74.8,73.9,30.15,NW,305,0.0,0.0,97,0.00,,---,0.00,VWS V14.01,2013-07-19 10:46:00,
2013-07-19 06:47:00,74.8,73.9,30.15,NW,305,0.0,0.0,97,0.00,,---,0.00,VWS V14.01,2013-07-19 10:47:00,
2013-07-19 06:50:00,74.8,73.9,30.15,NW,305,0.0,0.0,97,0.00,,---,0.00,VWS V14.01,2013-07-19 10:50:00,
2013-07-19 06:51:00,74.8,73.9,30.15,NW,305,0.0,0.0,97,0.00,,---,0.00,VWS V14.01,2013-07-19 10:51:00,
2013-07-19 06:52:00,74.8,73.9,30.15,NW,305,0.0,0.0,97,0.00,,---,0.00,VWS V14.01,2013-07-19 10:52:00,
2013-07-19 06:55:00,74.7,73.8,30.15,NW,305,0.0,0.0,97,0.00,,---,0.00,VWS V14.01,2013-07-19 10:55:00,
2013-07-19 06:56:00,74.7,73.8,30.15,NW,305,0.0,0.0,97,0.00,,---,0.00,VWS V14.01,2013-07-19 10:56:00,
2013-07-19 06:57:00,74.7,73.8,30.15,NW,305,0.0,0.0,97,0.00,,---,0.00,VWS V14.01,2013-07-19 10:57:00,
2013-07-19 06:58:00,74.7,73.8,30.15,NW,305,0.0,0.0,97,0.00,,---,0.00,VWS V14.01,2013-07-19 10:58:00,
2013-07-19 07:00:00,74.8,73.9,30.15,NW,305,0.0,0.0,97,0.00,,---,0.00,VWS V14.01,2013-07-19 11:00:00,
2013-07-19 07:01:00,74.8,73.9,30.15,NW,305,0.0,0.0,97,0.00,,---,0.00,VWS V14.01,2013-07-19 11:01:00,
2013-07-19 07:02:00,74.8,73.9,30.15,NW,305,0.0,0.0,97,0.00,,---,0.00,VWS V14.01,2013-07-19 11:02:00,
2013-07-19 07:03:00,74.8,73.9,30.15,NW,305,0.0,0.0,97,0.00,,---,0.00,VWS V14.01,2013-07-19 11:03:00,
2013-07-19 07:05:00,74.8,73.9,30.15,NW,305,0.0,0.0,97,0.00,,---,0.00,VWS V14.01,2013-07-19 11:05:00,
2013-07-19 07:06:00,74.8,73.9,30.15,NW,305,0.0,0.0,97,0.00,,---,0.00,VWS V14.01,2013-07-19 11:06:00,
2013-07-19 07:07:00,74.8,73.9,30.15,NW,305,0.0,0.0,97,0.00,,---,0.00,VWS V14.01,2013-07-19 11:07:00,
2013-07-19 07:08:00,74.8,73.9,30.15,NW,305,0.0,0.0,97,0.00,,---,0.00,VWS V14.01,2013-07-19 11:08:00,
2013-07-19 07:10:00,74.8,73.9,30.15,NW,305,0.0,0.0,97,0.00,,---,0.00,VWS V14.01,2013-07-19 11:10:00,
2013-07-19 07:11:00,75.0,74.1,30.15,NW,305,0.0,0.0,97,0.00,,---,0.00,VWS V14.01,2013-07-19 11:11:00,
2013-07-19 07:12:00,75.0,74.1,30.15,NW,305,0.0,0.0,97,0.00,,---,0.00,VWS V14.01,2013-07-19 11:12:00,
2013-07-19 07:13:00,75.0,74.1,30.15,NW,305,0.0,0.0,97,0.00,,---,0.00,VWS V14.01,2013-07-19 11:13:00,
2013-07-19 07:16:00,75.2,74.3,30.15,NW,305,0.0,0.0,97,0.00,,---,0.00,VWS V14.01,2013-07-19 11:16:00,
2013-07-19 07:17:00,75.2,74.3,30.15,NW,305,0.0,0.0,97,0.00,,---,0.00,VWS V14.01,2013-07-19 11:17:00,
2013-07-19 07:18:00,75.2,74.3,30.15,NW,305,0.0,0.0,97,0.00,,---,0.00,VWS V14.01,2013-07-19 11:18:00,
2013-07-19 07:21:00,75.2,74.3,30.15,NW,305,0.0,0.0,97,0.00,,---,0.00,VWS V14.01,2013-07-19 11:21:00,
2013-07-19 07:22:00,75.2,74.3,30.15,NW,305,0.0,0.0,97,0.00,,---,0.00,VWS V14.01,2013-07-19 11:22:00,
2013-07-19 07:23:00,75.4,74.5,30.15,NW,305,0.0,0.0,97,0.00,,---,0.00,VWS V14.01,2013-07-19 11:23:00,
2013-07-19 07:26:00,75.4,74.5,30.15,NW,305,0.0,0.0,97,0.00,,---,0.00,VWS V14.01,2013-07-19 11:26:00,
2013-07-19 07:27:00,75.4,74.5,30.15,NW,305,0.0,0.0,97,0.00,,---,0.00,VWS V14.01,2013-07-19 11:27:00,
2013-07-19 07:28:00,75.6,74.7,30.15,NW,305,0.0,0.0,97,0.00,,---,0.00,VWS V14.01,2013-07-19 11:28:00,
2013-07-19 07:31:00,75.7,74.8,30.15,NW,305,0.0,0.0,97,0.00,,---,0.00,VWS V14.01,2013-07-19 11:31:00,
2013-07-19 07:32:00,75.7,74.8,30.15,NW,305,0.0,0.0,97,0.00,,---,0.00,VWS V14.01,2013-07-19 11:32:00,
2013-07-19 07:33:00,75.9,75.0,30.15,NW,305,0.0,0.0,97,0.00,,---,0.00,VWS V14.01,2013-07-19 11:33:00,
2013-07-19 07:37:00,76.1,75.2,30.15,NW,305,0.0,0.0,97,0.00,,---,0.00,VWS V14.01,2013-07-19 11:37:00,
2013-07-19 07:38:00,76.1,75.2,30.15,NW,305,0.0,0.0,97,0.00,,---,0.00,VWS V14.01,2013-07-19 11:38:00,
2013-07-19 07:42:00,76.3,75.4,30.15,NW,305,0.0,0.0,97,0.00,,---,0.00,VWS V14.01,2013-07-19 11:42:00,
2013-07-19 07:43:00,76.3,75.4,30.15,NW,305,0.0,0.0,97,0.00,,---,0.00,VWS V14.01,2013-07-19 11:43:00,
2013-07-19 07:47:00,76.5,75.6,30.15,NW,305,0.0,0.0,97,0.00,,---,0.00,VWS V14.01,2013-07-19 11:47:00,
2013-07-19 07:48:00,76.6,75.7,30.15,NW,305,0.0,0.0,97,0.00,,---,0.00,VWS V14.01,2013-07-19 11:48:00,
2013-07-19 07:52:00,76.8,75.9,30.15,NW,305,0.0,0.0,97,0.00,,---,0.00,VWS V14.01,2013-07-19 11:52:00,
2013-07-19 07:53:00,76.8,75.9,30.15,NW,305,0.0,0.0,97,0.00,,---,0.00,VWS V14.01,2013-07-19 11:53:00,
2013-07-19 07:54:00,76.8,75.9,30.15,NW,305,0.0,0.0,97,0.00,,---,0.00,VWS V14.01,2013-07-19 11:54:00,
2013-07-19 07:57:00,77.0,76.1,30.15,NW,305,0.0,0.0,97,0.00,,---,0.00,VWS V14.01,2013-07-19 11:57:00,
2013-07-19 07:58:00,77.2,76.3,30.15,NW,305,0.0,0.0,97,0.00,,---,0.00,VWS V14.01,2013-07-19 11:58:00,
2013-07-19 07:59:00,77.2,76.3,30.15,NW,305,0.0,0.0,97,0.00,,---,0.00,VWS V14.01,2013-07-19 11:59:00,
2013-07-19 08:02:00,77.4,76.1,30.15,NW,305,0.0,0.0,96,0.00,,---,0.00,VWS V14.01,2013-07-19 12:02:00,
2013-07-19 08:03:00,77.4,76.1,30.15,NW,305,0.0,0.0,96,0.00,,---,0.00,VWS V14.01,2013-07-19 12:03:00,
2013-07-19 08:04:00,77.4,76.1,30.15,NW,305,0.0,0.0,96,0.00,,---,0.00,VWS V14.01,2013-07-19 12:04:00,
2013-07-19 08:07:00,77.5,76.3,30.15,NW,305,0.0,0.0,96,0.00,,---,0.00,VWS V14.01,2013-07-19 12:07:00,
2013-07-19 08:08:00,77.5,76.3,30.15,NW,305,0.0,0.0,96,0.00,,---,0.00,VWS V14.01,2013-07-19 12:08:00,
2013-07-19 08:09:00,77.5,76.3,30.15,NW,305,0.0,0.0,96,0.00,,---,0.00,VWS V14.01,2013-07-19 12:09:00,
2013-07-19 08:12:00,77.5,76.3,30.15,NW,305,0.0,0.0,96,0.00,,---,0.00,VWS V14.01,2013-07-19 12:12:00,
2013-07-19 08:14:00,77.7,76.5,30.15,NW,305,0.0,0.0,96,0.00,,---,0.00,VWS V14.01,2013-07-19 12:14:00,
2013-07-19 08:15:00,77.7,76.5,30.15,NW,305,0.0,0.0,96,0.00,,---,0.00,VWS V14.01,2013-07-19 12:15:00,
2013-07-19 08:18:00,77.7,76.5,30.15,NW,305,0.0,0.0,96,0.00,,---,0.00,VWS V14.01,2013-07-19 12:18:00,
2013-07-19 08:19:00,77.9,76.7,30.15,NW,305,0.0,0.0,96,0.00,,---,0.00,VWS V14.01,2013-07-19 12:19:00,
2013-07-19 08:20:00,77.9,76.7,30.15,NW,305,0.0,0.0,96,0.00,,---,0.00,VWS V14.01,2013-07-19 12:20:00,
2013-07-19 08:23:00,78.1,76.8,30.15,NW,305,0.0,0.0,96,0.00,,---,0.00,VWS V14.01,2013-07-19 12:23:00,
2013-07-19 08:24:00,78.1,76.8,30.15,NW,305,0.0,0.0,96,0.00,,---,0.00,VWS V14.01,2013-07-19 12:24:00,
2013-07-19 08:25:00,78.3,77.0,30.15,NW,305,0.0,0.0,96,0.00,,---,0.00,VWS V14.01,2013-07-19 12:25:00,
2013-07-19 08:28:00,78.4,77.2,30.15,NW,305,0.0,0.0,96,0.00,,---,0.00,VWS V14.01,2013-07-19 12:28:00,
2013-07-19 08:29:00,78.6,77.4,30.15,NW,305,0.0,0.0,96,0.00,,---,0.00,VWS V14.01,2013-07-19 12:29:00,
2013-07-19 08:30:00,78.8,77.6,30.15,NW,305,0.0,0.0,96,0.00,,---,0.00,VWS V14.01,2013-07-19 12:30:00,
2013-07-19 08:33:00,79.3,78.1,30.15,NW,305,0.0,0.0,96,0.00,,---,0.00,VWS V14.01,2013-07-19 12:33:00,
2013-07-19 08:34:00,79.5,78.3,30.15,NW,305,0.0,0.0,96,0.00,,---,0.00,VWS V14.01,2013-07-19 12:34:00,
2013-07-19 08:36:00,79.9,78.6,30.15,NW,305,0.0,0.0,96,0.00,,---,0.00,VWS V14.01,2013-07-19 12:36:00,
2013-07-19 08:38:00,80.2,79.0,30.15,NW,305,0.0,0.0,96,0.00,,---,0.00,VWS V14.01,2013-07-19 12:38:00,
2013-07-19 08:39:00,80.2,79.0,30.15,NW,305,0.0,0.0,96,0.00,,---,0.00,VWS V14.01,2013-07-19 12:39:00,
2013-07-19 08:41:00,80.4,79.2,30.15,NW,305,0.0,0.0,96,0.00,,---,0.00,VWS V14.01,2013-07-19 12:41:00,
2013-07-19 08:43:00,80.4,79.2,30.18,NW,305,0.0,0.0,96,0.00,,---,0.00,VWS V14.01,2013-07-19 12:43:00,
2013-07-19 08:44:00,80.4,78.9,30.18,NW,305,0.0,0.0,95,0.00,,---,0.00,VWS V14.01,2013-07-19 12:44:00,
2013-07-19 08:45:00,80.4,78.9,30.18,NW,305,0.0,0.0,95,0.00,,---,0.00,VWS V14.01,2013-07-19 12:45:00,
2013-07-19 08:46:00,80.6,79.0,30.18,NW,305,0.0,0.0,95,0.00,,---,0.00,VWS V14.01,2013-07-19 12:46:00,
2013-07-19 08:48:00,80.6,79.0,30.18,NW,305,0.0,0.0,95,0.00,,---,0.00,VWS V14.01,2013-07-19 12:48:00,
2013-07-19 08:49:00,80.6,79.0,30.18,NW,305,0.0,0.0,95,0.00,,---,0.00,VWS V14.01,2013-07-19 12:49:00,
2013-07-19 08:50:00,80.6,79.0,30.18,NW,305,0.0,0.0,95,0.00,,---,0.00,VWS V14.01,2013-07-19 12:50:00,
2013-07-19 08:51:00,80.6,79.0,30.18,NW,305,0.0,0.0,95,0.00,,---,0.00,VWS V14.01,2013-07-19 12:51:00,
2013-07-19 08:54:00,80.6,79.0,30.18,SSE,163,0.0,0.0,95,0.00,,---,0.00,VWS V14.01,2013-07-19 12:54:00,
2013-07-19 08:55:00,80.6,79.0,30.18,South,174,0.0,0.0,95,0.00,,---,0.00,VWS V14.01,2013-07-19 12:55:00,
2013-07-19 08:56:00,80.6,79.0,30.18,SSW,196,0.0,0.0,95,0.00,,---,0.00,VWS V14.01,2013-07-19 12:56:00,
2013-07-19 08:59:00,81.1,79.6,30.15,SSW,196,0.0,0.0,95,0.00,,---,0.00,VWS V14.01,2013-07-19 12:59:00,
2013-07-19 09:00:00,81.1,79.6,30.15,SSW,196,0.0,0.0,95,0.00,,---,0.00,VWS V14.01,2013-07-19 13:00:00,
2013-07-19 09:01:00,81.1,79.6,30.15,SSW,196,0.0,0.0,95,0.00,,---,0.00,VWS V14.01,2013-07-19 13:01:00,
2013-07-19 09:04:00,81.1,79.6,30.15,SSE,163,4.9,4.9,95,0.00,,---,0.00,VWS V14.01,2013-07-19 13:04:00,
2013-07-19 09:05:00,81.1,79.6,30.15,SSE,163,4.9,4.9,95,0.00,,---,0.00,VWS V14.01,2013-07-19 13:05:00,
2013-07-19 09:06:00,81.1,79.6,30.15,SSE,150,3.6,3.6,95,0.00,,---,0.00,VWS V14.01,2013-07-19 13:06:00,
2013-07-19 09:09:00,81.1,79.6,30.15,SSE,150,3.6,3.6,95,0.00,,---,0.00,VWS V14.01,2013-07-19 13:09:00,
2013-07-19 09:10:00,81.1,79.6,30.15,SSE,150,3.6,3.6,95,0.00,,---,0.00,VWS V14.01,2013-07-19 13:10:00,
2013-07-19 09:11:00,81.1,79.6,30.15,South,173,5.8,5.8,95,0.00,,---,0.00,VWS V14.01,2013-07-19 13:11:00,
2013-07-19 09:14:00,81.1,79.6,30.15,South,173,5.8,5.8,95,0.00,,---,0.00,VWS V14.01,2013-07-19 13:14:00,
2013-07-19 09:15:00,81.1,79.6,30.15,SSE,148,3.1,5.8,95,0.00,,---,0.00,VWS V14.01,2013-07-19 13:15:00,
2013-07-19 09:16:00,81.1,79.6,30.15,SSE,148,3.1,3.1,95,0.00,,---,0.00,VWS V14.01,2013-07-19 13:16:00,
2013-07-19 09:19:00,81.1,79.6,30.15,SSE,148,3.1,3.1,95,0.00,,---,0.00,VWS V14.01,2013-07-19 13:19:00,
2013-07-19 09:20:00,81.1,79.6,30.15,SSE,148,3.1,3.1,95,0.00,,---,0.00,VWS V14.01,2013-07-19 13:20:00,
2013-07-19 09:21:00,81.1,79.6,30.15,SSE,148,3.1,3.1,95,0.00,,---,0.00,VWS V14.01,2013-07-19 13:21:00,
2013-07-19 09:24:00,81.1,79.6,30.15,South,178,0.0,3.1,95,0.00,,---,0.00,VWS V14.01,2013-07-19 13:24:00,
2013-07-19 09:25:00,81.1,79.6,30.15,South,178,0.0,0.0,95,0.00,,---,0.00,VWS V14.01,2013-07-19 13:25:00,
2013-07-19 09:26:00,81.1,79.6,30.15,South,178,0.0,0.0,95,0.00,,---,0.00,VWS V14.01,2013-07-19 13:26:00,
2013-07-19 09:29:00,81.1,79.6,30.15,SW,217,3.6,3.6,95,0.00,,---,0.00,VWS V14.01,2013-07-19 13:29:00,
2013-07-19 09:30:00,81.1,79.6,30.15,SW,217,3.6,3.6,95,0.00,,---,0.00,VWS V14.01,2013-07-19 13:30:00,
2013-07-19 09:31:00,81.1,79.6,30.15,SW,217,3.6,3.6,95,0.00,,---,0.00,VWS V14.01,2013-07-19 13:31:00,
2013-07-19 09:34:00,81.1,79.6,30.15,South,173,3.1,3.1,95,0.00,,---,0.00,VWS V14.01,2013-07-19 13:34:00,
2013-07-19 09:36:00,81.1,79.6,30.15,South,173,3.1,3.1,95,0.00,,---,0.00,VWS V14.01,2013-07-19 13:36:00,
2013-07-19 09:40:00,81.1,79.6,30.15,South,172,2.7,2.7,95,0.00,,---,0.00,VWS V14.01,2013-07-19 13:40:00,
2013-07-19 09:41:00,81.1,79.6,30.15,South,172,2.7,2.7,95,0.00,,---,0.00,VWS V14.01,2013-07-19 13:41:00,
2013-07-19 09:45:00,81.1,79.6,30.18,SSE,156,0.0,0.0,95,0.00,,---,0.00,VWS V14.01,2013-07-19 13:45:00,
2013-07-19 09:46:00,81.1,79.6,30.18,SSE,156,0.0,0.0,95,0.00,,---,0.00,VWS V14.01,2013-07-19 13:46:00,
2013-07-19 09:50:00,81.1,79.6,30.18,South,187,2.2,2.2,95,0.00,,---,0.00,VWS V14.01,2013-07-19 13:50:00,
2013-07-19 09:51:00,81.1,79.6,30.18,South,187,2.2,2.2,95,0.00,,---,0.00,VWS V14.01,2013-07-19 13:51:00,
2013-07-19 09:52:00,81.1,79.6,30.18,South,187,2.2,2.2,95,0.00,,---,0.00,VWS V14.01,2013-07-19 13:52:00,
2013-07-19 09:55:00,81.1,79.6,30.18,SE,141,4.9,4.9,95,0.00,,---,0.00,VWS V14.01,2013-07-19 13:55:00,
2013-07-19 09:56:00,81.1,79.6,30.18,South,177,2.7,2.7,95,0.00,,---,0.00,VWS V14.01,2013-07-19 13:56:00,
2013-07-19 09:57:00,81.1,79.6,30.18,South,177,2.7,2.7,95,0.00,,---,0.00,VWS V14.01,2013-07-19 13:57:00,
2013-07-19 10:00:00,81.1,79.6,30.18,South,177,2.7,2.7,95,0.00,,---,0.00,VWS V14.01,2013-07-19 14:00:00,
2013-07-19 10:01:00,81.1,79.6,30.18,South,177,2.7,2.7,95,0.00,,---,0.00,VWS V14.01,2013-07-19 14:01:00,
2013-07-19 10:02:00,81.1,79.6,30.18,South,177,2.7,2.7,95,0.00,,---,0.00,VWS V14.01,2013-07-19 14:02:00,
2013-07-19 10:03:00,81.1,79.6,30.18,South,170,0.0,2.7,95,0.00,,---,0.00,VWS V14.01,2013-07-19 14:03:00,
2013-07-19 10:05:00,81.1,79.6,30.18,South,169,2.7,2.7,95,0.00,,---,0.00,VWS V14.01,2013-07-19 14:05:00,
2013-07-19 10:06:00,81.1,79.6,30.18,South,169,2.7,2.7,95,0.00,,---,0.00,VWS V14.01,2013-07-19 14:06:00,
2013-07-19 10:07:00,81.1,79.6,30.18,South,169,2.7,2.7,95,0.00,,---,0.00,VWS V14.01,2013-07-19 14:07:00,
2013-07-19 10:08:00,81.1,79.6,30.18,South,169,2.7,2.7,95,0.00,,---,0.00,VWS V14.01,2013-07-19 14:08:00,
2013-07-19 10:11:00,81.1,79.6,30.18,South,169,2.7,2.7,95,0.00,,---,0.00,VWS V14.01,2013-07-19 14:11:00,
2013-07-19 10:12:00,81.1,79.6,30.18,WSW,237,2.7,2.7,95,0.00,,---,0.00,VWS V14.01,2013-07-19 14:12:00,
2013-07-19 10:13:00,81.1,79.6,30.18,WSW,237,2.7,2.7,95,0.00,,---,0.00,VWS V14.01,2013-07-19 14:13:00,
2013-07-19 10:16:00,81.1,79.6,30.18,SSW,194,4.0,4.0,95,0.00,,---,0.00,VWS V14.01,2013-07-19 14:16:00,
2013-07-19 10:17:00,81.1,79.6,30.18,SSW,194,4.0,4.0,95,0.00,,---,0.00,VWS V14.01,2013-07-19 14:17:00,
2013-07-19 10:18:00,81.1,79.6,30.18,SSW,194,4.0,4.0,95,0.00,,---,0.00,VWS V14.01,2013-07-19 14:18:00,
2013-07-19 10:21:00,81.1,79.6,30.18,SSW,194,4.0,4.0,95,0.00,,---,0.00,VWS V14.01,2013-07-19 14:21:00,
2013-07-19 10:22:00,81.1,79.6,30.18,South,172,2.7,2.7,95,0.00,,---,0.00,VWS V14.01,2013-07-19 14:22:00,
2013-07-19 10:23:00,81.1,79.6,30.18,SE,144,4.9,4.9,95,0.00,,---,0.00,VWS V14.01,2013-07-19 14:23:00,
2013-07-19 10:26:00,81.1,79.6,30.18,SE,144,4.9,4.9,95,0.00,,---,0.00,VWS V14.01,2013-07-19 14:26:00,
2013-07-19 10:27:00,81.1,79.6,30.18,SE,144,4.9,4.9,95,0.00,,---,0.00,VWS V14.01,2013-07-19 14:27:00,
2013-07-19 10:28:00,81.1,79.6,30.18,SE,144,4.9,4.9,95,0.00,,---,0.00,VWS V14.01,2013-07-19 14:28:00,
2013-07-19 10:31:00,81.1,79.6,30.18,SE,144,4.9,4.9,95,0.00,,---,0.00,VWS V14.01,2013-07-19 14:31:00,
2013-07-19 10:32:00,81.1,79.6,30.18,SE,134,3.6,3.6,95,0.00,,---,0.00,VWS V14.01,2013-07-19 14:32:00,
2013-07-19 10:33:00,81.1,79.6,30.18,SE,134,3.6,3.6,95,0.00,,---,0.00,VWS V14.01,2013-07-19 14:33:00,
2013-07-19 10:36:00,81.1,79.6,30.18,SE,134,3.6,3.6,95,0.00,,---,0.00,VWS V14.01,2013-07-19 14:36:00,
2013-07-19 10:37:00,81.1,79.6,30.18,SE,134,3.6,3.6,95,0.00,,---,0.00,VWS V14.01,2013-07-19 14:37:00,
2013-07-19 10:38:00,81.1,79.6,30.18,SE,134,3.6,3.6,95,0.00,,---,0.00,VWS V14.01,2013-07-19 14:38:00,
2013-07-19 10:41:00,81.1,79.6,30.18,SSE,154,4.0,4.0,95,0.00,,---,0.00,VWS V14.01,2013-07-19 14:41:00,
2013-07-19 10:42:00,81.1,79.6,30.18,SW,214,6.3,6.3,95,0.00,,---,0.00,VWS V14.01,2013-07-19 14:42:00,
2013-07-19 10:43:00,81.1,79.6,30.18,SW,214,6.3,6.3,95,0.00,,---,0.00,VWS V14.01,2013-07-19 14:43:00,
2013-07-19 10:46:00,81.1,79.6,30.18,SW,214,6.3,6.3,95,0.00,,---,0.00,VWS V14.01,2013-07-19 14:46:00,
2013-07-19 10:47:00,81.1,79.6,30.18,SW,214,6.3,6.3,95,0.00,,---,0.00,VWS V14.01,2013-07-19 14:47:00,
2013-07-19 10:49:00,81.1,79.6,30.18,SW,214,6.3,6.3,95,0.00,,---,0.00,VWS V14.01,2013-07-19 14:49:00,
2013-07-19 10:51:00,81.1,79.6,30.18,SSW,208,4.0,4.0,95,0.00,,---,0.00,VWS V14.01,2013-07-19 14:51:00,
2013-07-19 10:52:00,81.1,79.6,30.18,SSW,208,4.0,4.0,95,0.00,,---,0.00,VWS V14.01,2013-07-19 14:52:00,
2013-07-19 10:54:00,81.1,79.6,30.18,SSW,208,4.0,4.0,95,0.00,,---,0.00,VWS V14.01,2013-07-19 14:54:00,
2013-07-19 10:56:00,81.1,79.6,30.18,SSW,208,4.0,4.0,95,0.00,,---,0.00,VWS V14.01,2013-07-19 14:56:00,
2013-07-19 10:57:00,81.1,79.6,30.18,SSW,208,4.0,4.0,95,0.00,,---,0.00,VWS V14.01,2013-07-19 14:57:00,
2013-07-19 10:58:00,81.1,79.6,30.18,SSW,208,4.0,4.0,95,0.00,,---,0.00,VWS V14.01,2013-07-19 14:58:00,
2013-07-19 10:59:00,81.1,79.6,30.18,SSW,208,4.0,4.0,95,0.00,,---,0.00,VWS V14.01,2013-07-19 14:59:00,
2013-07-19 11:01:00,81.1,79.6,30.18,SSE,168,3.1,3.1,95,0.00,,---,0.00,VWS V14.01,2013-07-19 15:01:00,
2013-07-19 11:02:00,81.1,79.6,30.18,SSE,168,3.1,3.1,95,0.00,,---,0.00,VWS V14.01,2013-07-19 15:02:00,
2013-07-19 11:03:00,81.1,79.6,30.18,SSE,168,3.1,3.1,95,0.00,,---,0.00,VWS V14.01,2013-07-19 15:03:00,
2013-07-19 11:04:00,81.1,79.6,30.18,SSE,168,3.1,3.1,95,0.00,,---,0.00,VWS V14.01,2013-07-19 15:04:00,
2013-07-19 11:06:00,81.1,79.6,30.18,SSE,168,3.1,3.1,95,0.00,,---,0.00,VWS V14.01,2013-07-19 15:06:00,
2013-07-19 11:07:00,81.1,79.6,30.18,SSE,168,3.1,3.1,95,0.00,,---,0.00,VWS V14.01,2013-07-19 15:07:00,
2013-07-19 11:08:00,81.1,79.6,30.18,SSE,168,3.1,3.1,95,0.00,,---,0.00,VWS V14.01,2013-07-19 15:08:00,
2013-07-19 11:09:00,81.1,79.6,30.18,SSW,205,2.7,2.7,95,0.00,,---,0.00,VWS V14.01,2013-07-19 15:09:00,
2013-07-19 11:11:00,81.1,79.6,30.18,SSW,205,2.7,2.7,95,0.00,,---,0.00,VWS V14.01,2013-07-19 15:11:00,
2013-07-19 11:12:00,81.1,79.6,30.18,SSW,205,2.7,2.7,95,0.00,,---,0.00,VWS V14.01,2013-07-19 15:12:00,
2013-07-19 11:13:00,81.1,79.6,30.18,SSW,205,2.7,2.7,95,0.00,,---,0.00,VWS V14.01,2013-07-19 15:13:00,
2013-07-19 11:14:00,81.1,79.6,30.18,SSW,205,2.7,2.7,95,0.00,,---,0.00,VWS V14.01,2013-07-19 15:14:00,
2013-07-19 11:17:00,81.1,79.6,30.18,SSW,205,2.7,2.7,95,0.00,,---,0.00,VWS V14.01,2013-07-19 15:17:00,
2013-07-19 11:18:00,81.1,79.6,30.18,South,182,3.6,3.6,95,0.00,,---,0.00,VWS V14.01,2013-07-19 15:18:00,
2013-07-19 11:19:00,81.1,79.6,30.18,South,182,4.9,4.9,95,0.00,,---,0.00,VWS V14.01,2013-07-19 15:19:00,
2013-07-19 11:22:00,81.1,79.6,30.18,South,182,4.9,4.9,95,0.00,,---,0.00,VWS V14.01,2013-07-19 15:22:00,
2013-07-19 11:23:00,81.1,79.6,30.18,South,182,4.9,4.9,95,0.00,,---,0.00,VWS V14.01,2013-07-19 15:23:00,
2013-07-19 11:24:00,81.1,79.6,30.18,South,182,4.9,4.9,95,0.00,,---,0.00,VWS V14.01,2013-07-19 15:24:00,
2013-07-19 11:27:00,81.1,79.6,30.18,South,180,2.7,4.9,95,0.00,,---,0.00,VWS V14.01,2013-07-19 15:27:00,
2013-07-19 11:28:00,81.1,79.6,30.18,South,180,2.7,2.7,95,0.00,,---,0.00,VWS V14.01,2013-07-19 15:28:00,
2013-07-19 11:29:00,81.1,79.6,30.18,South,171,3.1,3.1,95,0.00,,---,0.00,VWS V14.01,2013-07-19 15:29:00,
2013-07-19 11:32:00,81.1,79.6,30.18,South,171,3.1,3.1,95,0.00,,---,0.00,VWS V14.01,2013-07-19 15:32:00,
2013-07-19 11:33:00,81.1,79.6,30.18,South,171,3.1,3.1,95,0.00,,---,0.00,VWS V14.01,2013-07-19 15:33:00,
2013-07-19 11:35:00,81.1,79.6,30.18,South,171,3.1,3.1,95,0.00,,---,0.00,VWS V14.01,2013-07-19 15:35:00,
2013-07-19 11:37:00,81.1,79.6,30.18,South,188,3.6,3.6,95,0.00,,---,0.00,VWS V14.01,2013-07-19 15:37:00,
2013-07-19 11:38:00,81.1,79.6,30.18,SE,135,4.0,4.0,95,0.00,,---,0.00,VWS V14.01,2013-07-19 15:38:00,
2013-07-19 11:39:00,81.1,79.6,30.18,SE,135,4.0,4.0,95,0.00,,---,0.00,VWS V14.01,2013-07-19 15:39:00,
2013-07-19 11:40:00,81.1,79.6,30.18,SE,135,4.0,4.0,95,0.00,,---,0.00,VWS V14.01,2013-07-19 15:40:00,
2013-07-19 11:42:00,81.1,79.6,30.18,SE,135,4.0,4.0,95,0.00,,---,0.00,VWS V14.01,2013-07-19 15:42:00,
2013-07-19 11:43:00,81.1,79.6,30.18,SE,135,4.0,4.0,95,0.00,,---,0.00,VWS V14.01,2013-07-19 15:43:00,
2013-07-19 11:44:00,81.1,79.6,30.18,SE,135,4.0,4.0,95,0.00,,---,0.00,VWS V14.01,2013-07-19 15:44:00,
2013-07-19 11:45:00,81.1,79.6,30.18,SE,135,4.0,4.0,95,0.00,,---,0.00,VWS V14.01,2013-07-19 15:45:00,
2013-07-19 11:47:00,84.7,76.7,30.18,SE,135,4.0,4.0,77,0.00,,---,0.00,VWS V14.01,2013-07-19 15:47:00,
2013-07-19 11:48:00,84.7,76.7,30.18,SSE,168,5.8,5.8,77,0.00,,---,0.00,VWS V14.01,2013-07-19 15:48:00,
2013-07-19 11:49:00,84.7,76.7,30.18,SSE,168,5.8,5.8,77,0.00,,---,0.00,VWS V14.01,2013-07-19 15:49:00,
2013-07-19 11:50:00,84.7,76.7,30.18,SSE,168,5.8,5.8,77,0.00,,---,0.00,VWS V14.01,2013-07-19 15:50:00,
2013-07-19 11:52:00,84.7,76.7,30.18,SSE,168,5.8,5.8,77,0.00,,---,0.00,VWS V14.01,2013-07-19 15:52:00,
2013-07-19 11:53:00,84.7,76.7,30.18,SSE,168,5.8,5.8,77,0.00,,---,0.00,VWS V14.01,2013-07-19 15:53:00,
2013-07-19 11:54:00,84.7,76.7,30.18,SSE,168,5.8,5.8,77,0.00,,---,0.00,VWS V14.01,2013-07-19 15:54:00,
2013-07-19 11:55:00,84.7,76.7,30.18,South,180,5.4,5.4,77,0.00,,---,0.00,VWS V14.01,2013-07-19 15:55:00,
2013-07-19 11:57:00,84.7,76.7,30.18,South,187,3.6,5.4,77,0.00,,---,0.00,VWS V14.01,2013-07-19 15:57:00,
2013-07-19 11:59:00,84.7,76.7,30.18,South,187,3.6,3.6,77,0.00,,---,0.00,VWS V14.01,2013-07-19 15:59:00,
2013-07-19 12:00:00,84.7,76.7,30.18,South,187,3.6,3.6,77,0.00,,---,0.00,VWS V14.01,2013-07-19 16:00:00,
2013-07-19 12:02:00,84.7,76.7,30.18,South,187,3.6,3.6,77,0.00,,---,0.00,VWS V14.01,2013-07-19 16:02:00,
2013-07-19 12:04:00,84.7,76.7,30.18,SSW,194,3.1,3.1,77,0.00,,---,0.00,VWS V14.01,2013-07-19 16:04:00,
2013-07-19 12:05:00,84.7,76.7,30.18,SSW,194,3.1,3.1,77,0.00,,---,0.00,VWS V14.01,2013-07-19 16:05:00,
2013-07-19 12:07:00,84.7,76.7,30.18,South,184,2.7,2.7,77,0.00,,---,0.00,VWS V14.01,2013-07-19 16:07:00,
2013-07-19 12:09:00,84.7,76.7,30.18,South,184,2.7,2.7,77,0.00,,---,0.00,VWS V14.01,2013-07-19 16:09:00,
2013-07-19 12:10:00,84.7,76.7,30.18,South,184,2.7,2.7,77,0.00,,---,0.00,VWS V14.01,2013-07-19 16:10:00,
2013-07-19 12:12:00,85.3,77.3,30.18,South,182,5.8,5.8,77,0.00,,---,0.00,VWS V14.01,2013-07-19 16:12:00,
2013-07-19 12:14:00,85.3,77.3,30.18,South,182,5.8,5.8,77,0.00,,---,0.00,VWS V14.01,2013-07-19 16:14:00,
2013-07-19 12:15:00,85.3,77.3,30.18,South,182,5.8,5.8,77,0.00,,---,0.00,VWS V14.01,2013-07-19 16:15:00,
2013-07-19 12:17:00,85.3,77.3,30.18,South,181,2.7,2.7,77,0.00,,---,0.00,VWS V14.01,2013-07-19 16:17:00,
2013-07-19 12:19:00,85.3,77.3,30.18,South,173,0.0,0.0,77,0.00,,---,0.00,VWS V14.01,2013-07-19 16:19:00,
2013-07-19 12:20:00,85.3,77.3,30.18,South,173,0.0,0.0,77,0.00,,---,0.00,VWS V14.01,2013-07-19 16:20:00,
2013-07-19 12:21:00,85.3,77.3,30.18,South,173,0.0,0.0,77,0.00,,---,0.00,VWS V14.01,2013-07-19 16:21:00,
2013-07-19 12:22:00,85.3,77.3,30.18,SSE,149,6.3,6.3,77,0.00,,---,0.00,VWS V14.01,2013-07-19 16:22:00,
2013-07-19 12:24:00,85.3,77.3,30.18,SSE,149,6.3,6.3,77,0.00,,---,0.00,VWS V14.01,2013-07-19 16:24:00,
2013-07-19 12:25:00,85.3,77.3,30.18,SSE,149,6.3,6.3,77,0.00,,---,0.00,VWS V14.01,2013-07-19 16:25:00,
2013-07-19 12:26:00,85.3,77.3,30.18,South,175,4.0,4.0,77,0.00,,---,0.00,VWS V14.01,2013-07-19 16:26:00,
2013-07-19 12:28:00,85.3,77.3,30.18,South,175,4.0,4.0,77,0.00,,---,0.00,VWS V14.01,2013-07-19 16:28:00,
2013-07-19 12:29:00,85.3,77.3,30.18,South,175,4.0,4.0,77,0.00,,---,0.00,VWS V14.01,2013-07-19 16:29:00,
2013-07-19 12:30:00,85.3,77.3,30.18,South,175,4.0,4.0,77,0.00,,---,0.00,VWS V14.01,2013-07-19 16:30:00,
2013-07-19 12:31:00,85.3,77.3,30.18,South,187,2.7,2.7,77,0.00,,---,0.00,VWS V14.01,2013-07-19 16:31:00,
2013-07-19 12:33:00,85.3,77.3,30.18,South,187,2.7,2.7,77,0.00,,---,0.00,VWS V14.01,2013-07-19 16:33:00,
2013-07-19 12:34:00,85.3,77.3,30.18,South,187,2.7,2.7,77,0.00,,---,0.00,VWS V14.01,2013-07-19 16:34:00,
2013-07-19 12:35:00,85.3,77.3,30.18,South,187,2.7,2.7,77,0.00,,---,0.00,VWS V14.01,2013-07-19 16:35:00,
2013-07-19 12:37:00,86.9,78.4,30.18,South,183,3.6,3.6,76,0.00,,---,0.00,VWS V14.01,2013-07-19 16:37:00,
2013-07-19 12:38:00,86.9,78.4,30.18,South,183,3.6,3.6,76,0.00,,---,0.00,VWS V14.01,2013-07-19 16:38:00,
2013-07-19 12:39:00,86.9,78.4,30.18,SE,143,6.3,6.3,76,0.00,,---,0.00,VWS V14.01,2013-07-19 16:39:00,
2013-07-19 12:40:00,86.9,78.4,30.18,SE,143,6.3,6.3,76,0.00,,---,0.00,VWS V14.01,2013-07-19 16:40:00,
2013-07-19 12:42:00,87.1,77.4,30.18,SE,143,6.3,6.3,73,0.00,,---,0.00,VWS V14.01,2013-07-19 16:42:00,
2013-07-19 12:43:00,87.1,77.4,30.18,SE,143,6.3,6.3,73,0.00,,---,0.00,VWS V14.01,2013-07-19 16:43:00,
2013-07-19 12:45:00,87.1,77.4,30.18,SE,143,6.3,6.3,73,0.00,,---,0.00,VWS V14.01,2013-07-19 16:45:00,
2013-07-19 12:47:00,87.1,77.4,30.18,SE,144,6.3,6.3,73,0.00,,---,0.20,VWS V14.01,2013-07-19 16:47:00,
2013-07-19 12:49:00,87.1,77.4,30.18,SSE,155,4.9,6.3,73,0.00,,---,0.00,VWS V14.01,2013-07-19 16:49:00,
2013-07-19 12:50:00,87.1,77.4,30.18,SSE,155,4.9,4.9,73,0.00,,---,0.00,VWS V14.01,2013-07-19 16:50:00,
2013-07-19 12:53:00,87.1,77.4,30.18,SSE,153,4.9,4.9,73,0.00,,---,0.00,VWS V14.01,2013-07-19 16:53:00,
2013-07-19 12:54:00,87.1,77.4,30.18,SSE,153,4.9,4.9,73,0.00,,---,0.00,VWS V14.01,2013-07-19 16:54:00,
2013-07-19 12:55:00,87.1,77.4,30.18,SW,218,3.6,3.6,73,0.00,,---,0.00,VWS V14.01,2013-07-19 16:55:00,
2013-07-19 12:59:00,87.1,77.4,30.18,South,190,3.1,3.6,73,0.00,,---,0.00,VWS V14.01,2013-07-19 16:59:00,
2013-07-19 13:00:00,87.1,77.4,30.18,South,190,3.1,3.1,73,0.00,,---,0.00,VWS V14.01,2013-07-19 17:00:00,
2013-07-19 13:04:00,88.0,77.4,30.18,South,190,3.1,3.1,71,0.00,,---,0.00,VWS V14.01,2013-07-19 17:04:00,
2013-07-19 13:05:00,88.0,77.4,30.18,SSE,160,3.1,3.1,71,0.00,,---,0.00,VWS V14.01,2013-07-19 17:05:00,
2013-07-19 13:09:00,88.0,77.8,30.18,South,173,3.6,3.6,72,0.00,,---,0.00,VWS V14.01,2013-07-19 17:09:00,
2013-07-19 13:10:00,88.0,77.8,30.18,South,173,3.6,3.6,72,0.00,,---,0.00,VWS V14.01,2013-07-19 17:10:00,
2013-07-19 13:11:00,88.0,77.8,30.18,South,173,3.6,3.6,72,0.00,,---,0.00,VWS V14.01,2013-07-19 17:11:00,
2013-07-19 13:14:00,88.0,77.8,30.15,South,177,3.1,3.1,72,0.00,,---,0.00,VWS V14.01,2013-07-19 17:14:00,
2013-07-19 13:15:00,88.0,77.8,30.15,South,177,3.1,3.1,72,0.00,,---,0.00,VWS V14.01,2013-07-19 17:15:00,
2013-07-19 13:16:00,88.0,77.8,30.15,SSE,167,3.1,3.1,72,0.00,,---,0.00,VWS V14.01,2013-07-19 17:16:00,
2013-07-19 13:19:00,88.0,77.8,30.15,SSE,167,3.1,3.1,72,0.00,,---,0.00,VWS V14.01,2013-07-19 17:19:00,
2013-07-19 13:20:00,88.0,77.8,30.15,SSE,167,3.1,3.1,72,0.00,,---,0.00,VWS V14.01,2013-07-19 17:20:00,
2013-07-19 13:21:00,88.0,77.8,30.15,SSE,167,3.1,3.1,72,0.00,,---,0.00,VWS V14.01,2013-07-19 17:21:00,
2013-07-19 13:24:00,88.0,77.8,30.15,SSE,162,5.4,5.4,72,0.00,,---,0.00,VWS V14.01,2013-07-19 17:24:00,
2013-07-19 13:25:00,88.0,77.8,30.15,SSE,162,5.4,5.4,72,0.00,,---,0.00,VWS V14.01,2013-07-19 17:25:00,
2013-07-19 13:26:00,88.7,77.7,30.15,SW,233,3.1,5.4,70,0.00,,---,0.00,VWS V14.01,2013-07-19 17:26:00,
2013-07-19 13:29:00,88.7,77.7,30.15,SW,233,3.1,3.1,70,0.00,,---,0.00,VWS V14.01,2013-07-19 17:29:00,
2013-07-19 13:30:00,88.7,77.7,30.15,SW,233,3.1,3.1,70,0.00,,---,0.00,VWS V14.01,2013-07-19 17:30:00,
2013-07-19 13:31:00,88.7,77.7,30.15,SW,233,3.1,3.1,70,0.00,,---,0.00,VWS V14.01,2013-07-19 17:31:00,
2013-07-19 13:35:00,88.7,77.7,30.15,South,170,5.4,6.7,70,0.00,,---,0.00,VWS V14.01,2013-07-19 17:35:00,
2013-07-19 13:36:00,89.1,76.2,30.15,South,170,5.4,5.4,66,0.00,,---,0.00,VWS V14.01,2013-07-19 17:36:00,
2013-07-19 13:40:00,89.1,76.2,30.15,South,170,5.4,5.4,66,0.00,,---,0.00,VWS V14.01,2013-07-19 17:40:00,
2013-07-19 13:41:00,89.1,76.2,30.15,South,170,5.4,5.4,66,0.00,,---,0.00,VWS V14.01,2013-07-19 17:41:00,
2013-07-19 13:45:00,89.1,76.2,30.15,SSE,164,2.7,2.7,66,0.00,,---,0.00,VWS V14.01,2013-07-19 17:45:00,
2013-07-19 13:46:00,89.1,76.2,30.15,SSE,164,2.7,2.7,66,0.00,,---,0.00,VWS V14.01,2013-07-19 17:46:00,
2013-07-19 13:50:00,89.1,76.2,30.15,SSE,164,2.7,2.7,66,0.00,,---,0.00,VWS V14.01,2013-07-19 17:50:00,
2013-07-19 13:51:00,89.1,76.7,30.15,SSE,164,2.7,2.7,67,0.00,,---,0.00,VWS V14.01,2013-07-19 17:51:00,
2013-07-19 13:52:00,89.1,76.7,30.15,SSE,164,2.7,2.7,67,0.00,,---,0.00,VWS V14.01,2013-07-19 17:52:00,
2013-07-19 13:55:00,89.1,76.7,30.15,SSE,153,4.9,4.9,67,0.00,,---,0.00,VWS V14.01,2013-07-19 17:55:00,
2013-07-19 13:56:00,89.1,76.7,30.15,SSE,153,4.9,4.9,67,0.00,,---,0.00,VWS V14.01,2013-07-19 17:56:00,
2013-07-19 13:57:00,89.1,76.7,30.15,South,186,8.1,8.1,67,0.00,,---,0.00,VWS V14.01,2013-07-19 17:57:00,
2013-07-19 14:00:00,89.1,76.7,30.15,South,186,8.1,8.1,67,0.00,,---,0.00,VWS V14.01,2013-07-19 18:00:00,
2013-07-19 14:01:00,89.1,76.7,30.15,South,186,8.1,8.1,67,0.00,,---,0.00,VWS V14.01,2013-07-19 18:01:00,
2013-07-19 14:02:00,89.1,76.7,30.15,South,173,5.8,5.8,67,0.00,,---,0.00,VWS V14.01,2013-07-19 18:02:00,
2013-07-19 14:05:00,89.1,76.7,30.15,South,173,5.8,5.8,67,0.00,,---,0.00,VWS V14.01,2013-07-19 18:05:00,
2013-07-19 14:06:00,89.1,76.7,30.15,South,173,5.8,5.8,67,0.00,,---,0.00,VWS V14.01,2013-07-19 18:06:00,
2013-07-19 14:07:00,89.1,76.7,30.15,South,173,5.8,5.8,67,0.00,,---,0.00,VWS V14.01,2013-07-19 18:07:00,
2013-07-19 14:10:00,89.1,76.7,30.15,South,173,5.8,5.8,67,0.00,,---,0.00,VWS V14.01,2013-07-19 18:10:00,
2013-07-19 14:11:00,89.1,76.7,30.15,SE,138,2.7,5.8,67,0.00,,---,0.00,VWS V14.01,2013-07-19 18:11:00,
2013-07-19 14:12:00,89.1,76.7,30.15,SE,138,2.7,5.8,67,0.00,,---,0.00,VWS V14.01,2013-07-19 18:12:00,
2013-07-19 14:16:00,88.7,75.9,30.15,SE,138,2.7,2.7,66,0.00,,---,0.00,VWS V14.01,2013-07-19 18:16:00,
2013-07-19 14:17:00,88.7,75.9,30.15,SE,138,2.7,2.7,66,0.00,,---,0.00,VWS V14.01,2013-07-19 18:17:00,
2013-07-19 14:21:00,88.7,75.9,30.15,South,172,5.4,5.4,66,0.00,,---,0.00,VWS V14.01,2013-07-19 18:21:00,
2013-07-19 14:22:00,88.7,75.9,30.15,South,172,5.4,5.4,66,0.00,,---,0.00,VWS V14.01,2013-07-19 18:22:00,
2013-07-19 14:26:00,88.7,75.9,30.15,South,172,5.4,5.4,66,0.00,,---,0.00,VWS V14.01,2013-07-19 18:26:00,
2013-07-19 14:27:00,88.7,75.9,30.15,South,172,5.4,5.4,66,0.00,,---,0.00,VWS V14.01,2013-07-19 18:27:00,
2013-07-19 14:28:00,88.7,75.9,30.15,South,172,5.4,5.4,66,0.00,,---,0.00,VWS V14.01,2013-07-19 18:28:00,
2013-07-19 14:31:00,88.9,76.1,30.15,South,178,3.1,3.1,66,0.00,,---,0.00,VWS V14.01,2013-07-19 18:31:00,
2013-07-19 14:32:00,88.9,76.1,30.15,South,178,3.1,3.1,66,0.00,,---,0.00,VWS V14.01,2013-07-19 18:32:00,
2013-07-19 14:33:00,88.9,76.1,30.15,South,178,3.1,3.1,66,0.00,,---,0.00,VWS V14.01,2013-07-19 18:33:00,
2013-07-19 14:36:00,88.9,76.1,30.15,South,178,3.1,3.1,66,0.00,,---,0.00,VWS V14.01,2013-07-19 18:36:00,
2013-07-19 14:37:00,88.9,76.1,30.15,South,178,3.1,3.1,66,0.00,,---,0.00,VWS V14.01,2013-07-19 18:37:00,
2013-07-19 14:38:00,88.9,76.1,30.15,South,178,3.1,3.1,66,0.00,,---,0.00,VWS V14.01,2013-07-19 18:38:00,
2013-07-19 14:41:00,88.9,76.1,30.15,SSE,159,3.1,3.1,66,0.00,,---,0.00,VWS V14.01,2013-07-19 18:41:00,
2013-07-19 14:42:00,88.9,76.1,30.15,SSE,159,3.1,3.1,66,0.00,,---,0.00,VWS V14.01,2013-07-19 18:42:00,
2013-07-19 14:43:00,88.9,76.1,30.15,SSE,159,3.1,3.1,66,0.00,,---,0.00,VWS V14.01,2013-07-19 18:43:00,
2013-07-19 14:46:00,88.9,76.1,30.15,SSE,159,3.1,3.1,66,0.00,,---,0.00,VWS V14.01,2013-07-19 18:46:00,
2013-07-19 14:47:00,88.9,76.1,30.15,SSW,200,3.6,3.6,66,0.00,,---,0.00,VWS V14.01,2013-07-19 18:47:00,
2013-07-19 14:48:00,88.9,76.1,30.15,SSW,200,3.6,3.6,66,0.00,,---,0.00,VWS V14.01,2013-07-19 18:48:00,
2013-07-19 14:52:00,88.9,76.1,30.15,SW,218,4.0,7.6,66,0.00,,---,0.00,VWS V14.01,2013-07-19 18:52:00,
2013-07-19 14:53:00,88.9,76.1,30.15,SW,218,4.0,4.0,66,0.00,,---,0.00,VWS V14.01,2013-07-19 18:53:00,
2013-07-19 14:57:00,89.2,75.9,30.15,SW,214,5.4,5.4,65,0.00,,---,0.00,VWS V14.01,2013-07-19 18:57:00,
2013-07-19 14:58:00,89.2,75.9,30.15,SW,214,5.4,5.4,65,0.00,,---,0.00,VWS V14.01,2013-07-19 18:58:00,
2013-07-19 15:02:00,89.2,75.9,30.15,SSE,164,3.1,3.1,65,0.00,,---,0.00,VWS V14.01,2013-07-19 19:02:00,
2013-07-19 15:03:00,89.2,75.9,30.15,SSE,160,5.8,5.8,65,0.00,,---,0.00,VWS V14.01,2013-07-19 19:03:00,
2013-07-19 15:07:00,89.2,76.4,30.15,SSE,167,3.1,3.1,66,0.00,,---,0.00,VWS V14.01,2013-07-19 19:07:00,
2013-07-19 15:08:00,89.2,76.4,30.15,SSE,167,3.1,3.1,66,0.00,,---,0.00,VWS V14.01,2013-07-19 19:08:00,
2013-07-19 15:12:00,89.2,76.4,30.15,SSE,164,6.3,6.3,66,0.00,,---,0.00,VWS V14.01,2013-07-19 19:12:00,
2013-07-19 15:13:00,89.2,76.4,30.15,SSE,164,6.3,6.3,66,0.00,,---,0.00,VWS V14.01,2013-07-19 19:13:00,
2013-07-19 15:14:00,89.2,76.4,30.15,SE,141,8.3,8.3,66,0.00,,---,0.00,VWS V14.01,2013-07-19 19:14:00,
2013-07-19 15:17:00,89.2,76.4,30.15,SSE,154,4.0,4.0,66,0.00,,---,0.00,VWS V14.01,2013-07-19 19:17:00,
2013-07-19 15:18:00,89.2,76.4,30.15,SSE,147,3.1,4.0,66,0.00,,---,0.00,VWS V14.01,2013-07-19 19:18:00,
2013-07-19 15:19:00,89.2,76.4,30.15,SSE,147,3.1,4.0,66,0.00,,---,0.00,VWS V14.01,2013-07-19 19:19:00,
2013-07-19 15:23:00,88.9,76.5,30.15,SSE,147,3.1,3.1,67,0.00,,---,0.00,VWS V14.01,2013-07-19 19:23:00,
2013-07-19 15:24:00,88.9,76.5,30.15,South,181,6.3,6.3,67,0.00,,---,0.00,VWS V14.01,2013-07-19 19:24:00,
2013-07-19 15:28:00,88.9,76.5,30.15,SSE,157,5.4,6.3,67,0.00,,---,0.00,VWS V14.01,2013-07-19 19:28:00,
2013-07-19 15:29:00,88.9,76.5,30.15,SSE,157,5.4,5.4,67,0.00,,---,0.00,VWS V14.01,2013-07-19 19:29:00,
2013-07-19 15:33:00,88.5,75.7,30.15,SSE,157,5.4,5.4,66,0.00,,---,0.00,VWS V14.01,2013-07-19 19:33:00,
2013-07-19 15:34:00,88.5,75.7,30.15,SSE,157,5.4,5.4,66,0.00,,---,0.00,VWS V14.01,2013-07-19 19:34:00,
2013-07-19 15:38:00,88.5,75.7,30.15,South,179,3.6,3.6,66,0.00,,---,0.00,VWS V14.01,2013-07-19 19:38:00,
2013-07-19 15:39:00,88.5,75.7,30.15,South,179,3.6,3.6,66,0.00,,---,0.00,VWS V14.01,2013-07-19 19:39:00,
2013-07-19 15:43:00,88.5,75.7,30.15,SSE,161,3.6,3.6,66,0.00,,---,0.00,VWS V14.01,2013-07-19 19:43:00,
2013-07-19 15:44:00,88.5,75.7,30.15,SSE,161,3.6,3.6,66,0.00,,---,0.00,VWS V14.01,2013-07-19 19:44:00,
2013-07-19 15:48:00,88.2,75.8,30.15,SSE,158,4.0,4.0,67,0.00,,---,0.00,VWS V14.01,2013-07-19 19:48:00,
2013-07-19 15:49:00,88.2,75.8,30.15,SSE,158,4.0,4.0,67,0.00,,---,0.00,VWS V14.01,2013-07-19 19:49:00,
2013-07-19 15:50:00,88.2,75.8,30.15,SSE,158,4.0,4.0,67,0.00,,---,0.00,VWS V14.01,2013-07-19 19:50:00,
2013-07-19 15:53:00,88.2,75.8,30.15,SSW,213,2.7,2.7,67,0.00,,---,0.00,VWS V14.01,2013-07-19 19:53:00,
2013-07-19 15:54:00,87.8,74.6,30.15,SSW,213,2.7,2.7,65,0.00,,---,0.00,VWS V14.01,2013-07-19 19:54:00,
2013-07-19 15:55:00,87.8,74.6,30.15,SSW,213,2.7,2.7,65,0.00,,---,0.00,VWS V14.01,2013-07-19 19:55:00,
2013-07-19 15:58:00,87.8,74.6,30.15,SSE,167,2.7,2.7,65,0.00,,---,0.00,VWS V14.01,2013-07-19 19:58:00,
2013-07-19 15:59:00,87.8,74.6,30.15,SSE,167,2.7,2.7,65,0.00,,---,0.00,VWS V14.01,2013-07-19 19:59:00,
2013-07-19 16:00:00,87.8,74.6,30.15,SSE,153,5.4,5.4,65,0.00,,---,0.00,VWS V14.01,2013-07-19 20:00:00,
2013-07-19 16:03:00,87.8,74.6,30.15,SSE,153,5.4,5.4,65,0.00,,---,0.00,VWS V14.01,2013-07-19 20:03:00,
2013-07-19 16:04:00,87.8,74.6,30.15,SSE,153,5.4,5.4,65,0.00,,---,0.00,VWS V14.01,2013-07-19 20:04:00,
2013-07-19 16:05:00,87.8,74.6,30.15,SSE,153,5.4,5.4,65,0.00,,---,0.00,VWS V14.01,2013-07-19 20:05:00,
2013-07-19 16:09:00,87.8,74.6,30.15,South,185,4.9,5.4,65,0.00,,---,0.00,VWS V14.01,2013-07-19 20:09:00,
2013-07-19 16:10:00,87.8,74.6,30.15,South,177,4.9,4.9,65,0.00,,---,0.00,VWS V14.01,2013-07-19 20:10:00,
2013-07-19 16:14:00,87.8,74.6,30.15,South,177,4.9,4.9,65,0.00,,---,0.00,VWS V14.01,2013-07-19 20:14:00,
2013-07-19 16:15:00,88.0,75.7,30.15,South,177,4.9,4.9,67,0.00,,---,0.00,VWS V14.01,2013-07-19 20:15:00,
2013-07-19 16:19:00,88.0,75.7,30.15,SSE,148,3.6,3.6,67,0.00,,---,0.00,VWS V14.01,2013-07-19 20:19:00,
2013-07-19 16:20:00,88.0,75.7,30.15,SSE,163,2.7,2.7,67,0.00,,---,0.00,VWS V14.01,2013-07-19 20:20:00,
2013-07-19 16:24:00,88.0,75.7,30.15,SSE,163,2.7,2.7,67,0.00,,---,0.00,VWS V14.01,2013-07-19 20:24:00,
2013-07-19 16:25:00,88.0,75.7,30.15,SSE,163,2.7,2.7,67,0.00,,---,0.00,VWS V14.01,2013-07-19 20:25:00,
2013-07-19 16:29:00,88.0,75.7,30.15,South,172,3.1,3.1,67,0.00,,---,0.00,VWS V14.01,2013-07-19 20:29:00,
2013-07-19 16:30:00,88.0,75.7,30.15,SE,146,5.8,5.8,67,0.00,,---,0.00,VWS V14.01,2013-07-19 20:30:00,
2013-07-19 16:31:00,88.0,75.7,30.15,SE,146,5.8,5.8,67,0.00,,---,0.00,VWS V14.01,2013-07-19 20:31:00,
2013-07-19 16:34:00,88.0,75.7,30.15,SE,146,5.8,5.8,67,0.00,,---,0.00,VWS V14.01,2013-07-19 20:34:00,
2013-07-19 16:35:00,88.0,75.7,30.15,South,179,4.9,5.8,67,0.00,,---,0.00,VWS V14.01,2013-07-19 20:35:00,
2013-07-19 16:36:00,88.0,75.7,30.15,SSW,199,4.9,4.9,67,0.00,,---,0.00,VWS V14.01,2013-07-19 20:36:00,
2013-07-19 16:39:00,88.0,75.7,30.15,SSW,199,4.9,4.9,67,0.00,,---,0.00,VWS V14.01,2013-07-19 20:39:00,
2013-07-19 16:40:00,88.0,75.7,30.15,SSW,199,4.9,4.9,67,0.00,,---,0.00,VWS V14.01,2013-07-19 20:40:00,
2013-07-19 16:41:00,88.0,75.7,30.15,SSW,199,4.9,4.9,67,0.00,,---,0.00,VWS V14.01,2013-07-19 20:41:00,
2013-07-19 16:45:00,87.3,75.4,30.15,SSW,211,6.3,6.3,68,0.00,,---,0.00,VWS V14.01,2013-07-19 20:45:00,
2013-07-19 16:46:00,87.3,75.4,30.15,SW,221,4.0,4.0,68,0.00,,---,0.00,VWS V14.01,2013-07-19 20:46:00,
2013-07-19 16:50:00,87.3,75.4,30.15,SW,221,4.0,4.0,68,0.00,,---,0.00,VWS V14.01,2013-07-19 20:50:00,
2013-07-19 16:51:00,87.3,75.4,30.15,SW,221,4.0,4.0,68,0.00,,---,0.00,VWS V14.01,2013-07-19 20:51:00,
2013-07-19 16:55:00,87.3,75.4,30.15,South,169,5.8,5.8,68,0.00,,---,0.00,VWS V14.01,2013-07-19 20:55:00,
2013-07-19 16:56:00,87.3,75.4,30.15,South,169,5.8,5.8,68,0.00,,---,0.00,VWS V14.01,2013-07-19 20:56:00,
2013-07-19 17:00:00,87.3,75.4,30.15,South,169,5.8,5.8,68,0.00,,---,0.00,VWS V14.01,2013-07-19 21:00:00,
2013-07-19 17:01:00,87.3,75.4,30.15,South,169,5.8,5.8,68,0.00,,---,0.00,VWS V14.01,2013-07-19 21:01:00,
2013-07-19 17:05:00,87.3,75.4,30.15,SSE,154,4.0,4.0,68,0.00,,---,0.00,VWS V14.01,2013-07-19 21:05:00,
2013-07-19 17:06:00,87.3,75.4,30.15,SSE,154,4.0,4.0,68,0.00,,---,0.00,VWS V14.01,2013-07-19 21:06:00,
2013-07-19 17:10:00,86.7,75.8,30.15,SSE,154,4.0,4.0,70,0.00,,---,0.00,VWS V14.01,2013-07-19 21:10:00,
2013-07-19 17:11:00,86.7,75.8,30.15,SSE,154,4.0,4.0,70,0.00,,---,0.00,VWS V14.01,2013-07-19 21:11:00,
2013-07-19 17:15:00,86.7,75.8,30.15,SE,135,3.1,3.1,70,0.00,,---,0.00,VWS V14.01,2013-07-19 21:15:00,
2013-07-19 17:16:00,86.7,75.8,30.15,SE,135,3.1,3.1,70,0.00,,---,0.00,VWS V14.01,2013-07-19 21:16:00,
2013-07-19 17:20:00,86.7,75.8,30.15,SE,135,3.1,3.1,70,0.00,,---,0.00,VWS V14.01,2013-07-19 21:20:00,
2013-07-19 17:21:00,86.7,75.8,30.15,SE,135,3.1,3.1,70,0.00,,---,0.00,VWS V14.01,2013-07-19 21:21:00,
2013-07-19 17:26:00,86.7,75.8,30.12,SSE,154,4.0,4.0,70,0.00,,---,0.00,VWS V14.01,2013-07-19 21:26:00,
2013-07-19 17:27:00,86.7,75.8,30.12,SSE,154,4.0,4.0,70,0.00,,---,0.00,VWS V14.01,2013-07-19 21:27:00,
2013-07-19 17:31:00,86.7,75.8,30.12,SSE,159,5.8,5.8,70,0.00,,---,0.00,VWS V14.01,2013-07-19 21:31:00,
2013-07-19 17:32:00,86.7,75.8,30.12,SSE,159,5.8,5.8,70,0.00,,---,0.00,VWS V14.01,2013-07-19 21:32:00,
2013-07-19 17:36:00,86.5,76.0,30.12,SSE,159,4.0,4.0,71,0.00,,---,0.00,VWS V14.01,2013-07-19 21:36:00,
2013-07-19 17:37:00,86.5,76.0,30.12,SSE,159,4.0,4.0,71,0.00,,---,0.00,VWS V14.01,2013-07-19 21:37:00,
2013-07-19 17:41:00,86.5,76.0,30.12,South,169,5.8,5.8,71,0.00,,---,0.00,VWS V14.01,2013-07-19 21:41:00,
2013-07-19 17:42:00,86.5,76.0,30.12,South,177,6.3,6.3,71,0.00,,---,0.00,VWS V14.01,2013-07-19 21:42:00,
2013-07-19 17:46:00,86.5,76.0,30.12,South,177,6.3,6.3,71,0.00,,---,0.00,VWS V14.01,2013-07-19 21:46:00,
2013-07-19 17:47:00,86.5,76.0,30.12,SSE,157,3.1,3.1,71,0.00,,---,0.20,VWS V14.01,2013-07-19 21:47:00,
2013-07-19 17:51:00,86.5,76.0,30.12,SSE,167,4.0,4.0,71,0.00,,---,0.00,VWS V14.01,2013-07-19 21:51:00,
2013-07-19 17:52:00,86.5,76.0,30.12,SSE,167,4.0,4.0,71,0.00,,---,0.00,VWS V14.01,2013-07-19 21:52:00,
2013-07-19 17:53:00,86.5,76.0,30.12,SSE,167,4.0,4.0,71,0.00,,---,0.00,VWS V14.01,2013-07-19 21:53:00,
2013-07-19 17:56:00,86.5,76.0,30.12,SSE,167,4.0,4.0,71,0.00,,---,0.00,VWS V14.01,2013-07-19 21:56:00,
2013-07-19 17:57:00,86.5,76.0,30.12,SSE,167,4.0,4.0,71,0.00,,---,0.00,VWS V14.01,2013-07-19 21:57:00,
2013-07-19 17:58:00,87.6,77.1,30.12,SSE,159,4.0,4.0,71,0.00,,---,0.00,VWS V14.01,2013-07-19 21:58:00,
2013-07-19 18:01:00,87.4,76.9,30.12,SSW,200,3.6,3.6,71,0.00,,---,0.00,VWS V14.01,2013-07-19 22:01:00,
2013-07-19 18:02:00,87.4,76.9,30.12,SSW,200,3.6,3.6,71,0.00,,---,0.00,VWS V14.01,2013-07-19 22:02:00,
2013-07-19 18:03:00,87.4,76.9,30.12,SSW,200,3.6,3.6,71,0.00,,---,0.00,VWS V14.01,2013-07-19 22:03:00,
2013-07-19 18:07:00,87.4,76.9,30.12,SSW,200,3.6,3.6,71,0.00,,---,0.00,VWS V14.01,2013-07-19 22:07:00,
2013-07-19 18:08:00,87.4,76.9,30.12,SSW,200,3.6,3.6,71,0.00,,---,0.00,VWS V14.01,2013-07-19 22:08:00,
2013-07-19 18:12:00,87.4,76.9,30.12,South,171,5.8,5.8,71,0.00,,---,0.00,VWS V14.01,2013-07-19 22:12:00,
2013-07-19 18:13:00,87.4,76.9,30.12,South,171,5.8,5.8,71,0.00,,---,0.00,VWS V14.01,2013-07-19 22:13:00,
2013-07-19 18:17:00,87.4,76.9,30.12,South,171,5.8,5.8,71,0.00,,---,0.00,VWS V14.01,2013-07-19 22:17:00,
2013-07-19 18:18:00,87.4,76.9,30.12,South,171,5.8,5.8,71,0.00,,---,0.00,VWS V14.01,2013-07-19 22:18:00,
2013-07-19 18:22:00,87.4,76.9,30.12,South,171,5.8,5.8,71,0.00,,---,0.00,VWS V14.01,2013-07-19 22:22:00,
2013-07-19 18:23:00,87.4,76.9,30.12,South,171,5.8,5.8,71,0.00,,---,0.00,VWS V14.01,2013-07-19 22:23:00,
2013-07-19 18:24:00,87.4,76.9,30.12,South,171,5.8,5.8,71,0.00,,---,0.00,VWS V14.01,2013-07-19 22:24:00,
2013-07-19 18:27:00,87.4,76.9,30.09,South,171,5.8,5.8,71,0.00,,---,0.00,VWS V14.01,2013-07-19 22:27:00,
2013-07-19 18:28:00,87.4,76.9,30.09,South,171,5.8,5.8,71,0.00,,---,0.00,VWS V14.01,2013-07-19 22:28:00,
2013-07-19 18:29:00,87.4,76.9,30.09,South,171,5.8,5.8,71,0.00,,---,0.00,VWS V14.01,2013-07-19 22:29:00,
2013-07-19 18:32:00,87.4,76.9,30.09,South,183,5.8,5.8,71,0.00,,---,0.00,VWS V14.01,2013-07-19 22:32:00,
2013-07-19 18:33:00,87.4,76.9,30.09,South,183,5.8,5.8,71,0.00,,---,0.00,VWS V14.01,2013-07-19 22:33:00,
2013-07-19 18:34:00,87.4,76.9,30.09,South,183,5.8,5.8,71,0.00,,---,0.00,VWS V14.01,2013-07-19 22:34:00,
2013-07-19 18:37:00,87.4,76.9,30.09,South,183,5.8,5.8,71,0.00,,---,0.00,VWS V14.01,2013-07-19 22:37:00,
2013-07-19 18:38:00,87.4,76.9,30.09,South,183,5.8,5.8,71,0.00,,---,0.00,VWS V14.01,2013-07-19 22:38:00,
2013-07-19 18:39:00,87.4,76.9,30.09,SW,224,4.0,5.8,71,0.00,,---,0.00,VWS V14.01,2013-07-19 22:39:00,
2013-07-19 18:40:00,87.4,76.9,30.09,SW,224,4.0,4.0,71,0.00,,---,0.00,VWS V14.01,2013-07-19 22:40:00,
2013-07-19 18:42:00,87.4,76.9,30.09,SW,230,5.4,5.4,71,0.00,,---,0.00,VWS V14.01,2013-07-19 22:42:00,
2013-07-19 18:43:00,87.4,76.9,30.09,SW,230,5.4,5.4,71,0.00,,---,0.00,VWS V14.01,2013-07-19 22:43:00,
2013-07-19 18:44:00,87.4,76.9,30.09,SW,230,5.4,5.4,71,0.00,,---,0.00,VWS V14.01,2013-07-19 22:44:00,
2013-07-19 18:45:00,87.4,76.9,30.09,SW,230,5.4,5.4,71,0.00,,---,0.00,VWS V14.01,2013-07-19 22:45:00,
2013-07-19 18:47:00,87.4,76.9,30.09,SW,230,5.4,5.4,71,0.00,,---,0.00,VWS V14.01,2013-07-19 22:47:00,
2013-07-19 18:48:00,87.4,76.9,30.09,SW,230,5.4,5.4,71,0.00,,---,0.00,VWS V14.01,2013-07-19 22:48:00,
2013-07-19 18:49:00,87.4,76.9,30.09,South,169,3.1,5.4,71,0.00,,---,0.00,VWS V14.01,2013-07-19 22:49:00,
2013-07-19 18:50:00,87.4,76.9,30.09,South,169,3.1,3.1,71,0.00,,---,0.00,VWS V14.01,2013-07-19 22:50:00,
2013-07-19 18:52:00,87.4,76.9,30.09,South,189,4.0,4.0,71,0.00,,---,0.00,VWS V14.01,2013-07-19 22:52:00,
2013-07-19 18:54:00,87.4,76.9,30.09,South,189,4.0,4.0,71,0.00,,---,0.00,VWS V14.01,2013-07-19 22:54:00,
2013-07-19 18:55:00,87.4,76.9,30.09,South,189,4.0,4.0,71,0.00,,---,0.00,VWS V14.01,2013-07-19 22:55:00,
2013-07-19 18:58:00,87.4,76.9,30.09,South,189,4.0,4.0,71,0.00,,---,0.00,VWS V14.01,2013-07-19 22:58:00,
2013-07-19 18:59:00,87.4,76.9,30.09,SSW,207,0.0,0.0,71,0.00,,---,0.00,VWS V14.01,2013-07-19 22:59:00,
2013-07-19 19:00:00,87.4,76.9,30.09,SSW,207,0.0,0.0,71,0.00,,---,0.00,VWS V14.01,2013-07-19 23:00:00,
2013-07-19 19:03:00,87.4,76.9,30.09,SSW,207,0.0,0.0,71,0.00,,---,0.00,VWS V14.01,2013-07-19 23:03:00,
2013-07-19 19:04:00,87.4,76.9,30.09,SSE,163,2.7,2.7,71,0.00,,---,0.00,VWS V14.01,2013-07-19 23:04:00,
2013-07-19 19:05:00,87.4,76.9,30.09,SSE,163,2.7,2.7,71,0.00,,---,0.00,VWS V14.01,2013-07-19 23:05:00,
2013-07-19 19:08:00,87.4,76.9,30.09,South,169,4.0,4.0,71,0.00,,---,0.00,VWS V14.01,2013-07-19 23:08:00,
2013-07-19 19:09:00,87.4,76.9,30.09,South,169,4.0,4.0,71,0.00,,---,0.00,VWS V14.01,2013-07-19 23:09:00,
2013-07-19 19:10:00,87.4,76.9,30.09,South,169,4.0,4.0,71,0.00,,---,0.00,VWS V14.01,2013-07-19 23:10:00,
2013-07-19 19:13:00,85.1,76.3,30.09,South,169,4.0,4.0,75,0.00,,---,0.00,VWS V14.01,2013-07-19 23:13:00,
2013-07-19 19:14:00,85.1,76.3,30.09,South,169,4.0,4.0,75,0.00,,---,0.00,VWS V14.01,2013-07-19 23:14:00,
2013-07-19 19:15:00,85.1,76.3,30.09,South,183,2.7,2.7,75,0.00,,---,0.00,VWS V14.01,2013-07-19 23:15:00,
2013-07-19 19:18:00,85.1,76.3,30.09,WSW,242,3.6,3.6,75,0.00,,---,0.00,VWS V14.01,2013-07-19 23:18:00,
2013-07-19 19:19:00,85.1,76.3,30.09,WSW,242,3.6,3.6,75,0.00,,---,0.00,VWS V14.01,2013-07-19 23:19:00,
2013-07-19 19:20:00,85.1,76.3,30.09,WSW,242,3.6,3.6,75,0.00,,---,0.00,VWS V14.01,2013-07-19 23:20:00,
2013-07-19 19:21:00,85.1,76.3,30.09,WSW,242,3.6,3.6,75,0.00,,---,0.00,VWS V14.01,2013-07-19 23:21:00,
2013-07-19 19:23:00,84.9,75.7,30.09,South,169,3.1,3.1,74,0.00,,---,0.00,VWS V14.01,2013-07-19 23:23:00,
2013-07-19 19:24:00,84.9,75.7,30.09,South,169,3.1,3.1,74,0.00,,---,0.00,VWS V14.01,2013-07-19 23:24:00,
2013-07-19 19:25:00,84.9,75.7,30.09,South,169,3.1,3.1,74,0.00,,---,0.00,VWS V14.01,2013-07-19 23:25:00,
2013-07-19 19:26:00,84.9,75.7,30.09,SW,215,4.0,4.0,74,0.00,,---,0.00,VWS V14.01,2013-07-19 23:26:00,
2013-07-19 19:28:00,84.9,75.7,30.09,SW,215,4.0,4.0,74,0.00,,---,0.00,VWS V14.01,2013-07-19 23:28:00,
2013-07-19 19:29:00,84.9,75.7,30.09,SW,215,4.0,4.0,74,0.00,,---,0.00,VWS V14.01,2013-07-19 23:29:00,
2013-07-19 19:30:00,84.9,75.7,30.09,SW,215,4.0,4.0,74,0.00,,---,0.00,VWS V14.01,2013-07-19 23:30:00,
2013-07-19 19:31:00,84.9,75.7,30.09,SW,215,4.0,4.0,74,0.00,,---,0.00,VWS V14.01,2013-07-19 23:31:00,
2013-07-19 19:33:00,84.9,75.7,30.09,South,190,0.0,0.0,74,0.00,,---,0.00,VWS V14.01,2013-07-19 23:33:00,
2013-07-19 19:34:00,84.9,75.7,30.09,South,190,0.0,0.0,74,0.00,,---,0.00,VWS V14.01,2013-07-19 23:34:00,
2013-07-19 19:35:00,84.9,75.7,30.09,South,190,0.0,0.0,74,0.00,,---,0.00,VWS V14.01,2013-07-19 23:35:00,
2013-07-19 19:36:00,84.9,75.7,30.09,South,190,0.0,0.0,74,0.00,,---,0.00,VWS V14.01,2013-07-19 23:36:00,
2013-07-19 19:39:00,84.4,76.0,30.09,South,187,3.6,3.6,76,0.00,,---,0.00,VWS V14.01,2013-07-19 23:39:00,
2013-07-19 19:40:00,84.4,76.0,30.09,South,187,3.6,3.6,76,0.00,,---,0.00,VWS V14.01,2013-07-19 23:40:00,
2013-07-19 19:41:00,84.4,76.0,30.09,South,187,3.6,3.6,76,0.00,,---,0.00,VWS V14.01,2013-07-19 23:41:00,
2013-07-19 19:44:00,84.4,76.0,30.09,SSE,167,4.0,4.0,76,0.00,,---,0.00,VWS V14.01,2013-07-19 23:44:00,
2013-07-19 19:45:00,84.4,76.0,30.09,SSE,167,4.0,4.0,76,0.00,,---,0.00,VWS V14.01,2013-07-19 23:45:00,
2013-07-19 19:46:00,84.4,76.0,30.09,SW,223,4.0,4.0,76,0.00,,---,0.00,VWS V14.01,2013-07-19 23:46:00,
2013-07-19 19:49:00,84.4,76.0,30.09,SSE,160,4.9,4.9,76,0.00,,---,0.00,VWS V14.01,2013-07-19 23:49:00,
2013-07-19 19:50:00,84.4,76.0,30.09,SSE,160,4.9,4.9,76,0.00,,---,0.00,VWS V14.01,2013-07-19 23:50:00,
2013-07-19 19:51:00,83.8,75.9,30.09,SSE,160,4.9,4.9,77,0.00,,---,0.00,VWS V14.01,2013-07-19 23:51:00,
2013-07-19 19:54:00,83.8,75.9,30.09,SSE,156,5.4,5.4,77,0.00,,---,0.00,VWS V14.01,2013-07-19 23:54:00,
2013-07-19 19:55:00,83.8,75.9,30.09,SSE,156,5.4,5.4,77,0.00,,---,0.00,VWS V14.01,2013-07-19 23:55:00,
2013-07-19 19:56:00,83.8,75.9,30.09,South,189,2.7,2.7,77,0.00,,---,0.00,VWS V14.01,2013-07-19 23:56:00,
2013-07-19 19:57:00,83.8,75.9,30.09,South,189,2.7,2.7,77,0.00,,---,0.00,VWS V14.01,2013-07-19 23:57:00,
2013-07-19 20:00:00,83.8,75.9,30.09,South,190,3.1,3.1,77,0.00,,---,0.00,VWS V14.01,2013-07-20 00:00:00,
2013-07-19 20:01:00,83.7,76.1,30.09,South,190,3.1,3.1,78,0.00,,---,0.00,VWS V14.01,2013-07-20 00:01:00,
2013-07-19 20:02:00,83.7,76.1,30.09,South,190,3.1,3.1,78,0.00,,---,0.00,VWS V14.01,2013-07-20 00:02:00,
2013-07-19 20:05:00,83.7,76.1,30.09,SSW,206,2.7,3.1,78,0.00,,---,0.00,VWS V14.01,2013-07-20 00:05:00,
2013-07-19 20:06:00,83.7,76.1,30.09,SSW,206,2.7,2.7,78,0.00,,---,0.00,VWS V14.01,2013-07-20 00:06:00,
2013-07-19 20:07:00,83.7,76.1,30.09,SSW,206,2.7,2.7,78,0.00,,---,0.00,VWS V14.01,2013-07-20 00:07:00,
2013-07-19 20:10:00,83.7,76.1,30.09,NNW,339,2.7,2.7,78,0.00,,---,0.00,VWS V14.01,2013-07-20 00:10:00,
2013-07-19 20:11:00,83.7,76.1,30.09,NNW,339,2.7,2.7,78,0.00,,---,0.00,VWS V14.01,2013-07-20 00:11:00,
2013-07-19 20:12:00,83.7,76.1,30.09,NNW,339,2.7,2.7,78,0.00,,---,0.00,VWS V14.01,2013-07-20 00:12:00,
2013-07-19 20:15:00,83.7,76.1,30.09,South,181,3.6,3.6,78,0.00,,---,0.00,VWS V14.01,2013-07-20 00:15:00,
2013-07-19 20:16:00,83.7,76.1,30.09,South,181,3.6,3.6,78,0.00,,---,0.00,VWS V14.01,2013-07-20 00:16:00,
2013-07-19 20:17:00,83.7,76.1,30.09,South,181,3.6,3.6,78,0.00,,---,0.00,VWS V14.01,2013-07-20 00:17:00,
2013-07-19 20:20:00,83.7,76.1,30.09,South,181,3.6,3.6,78,0.00,,---,0.00,VWS V14.01,2013-07-20 00:20:00,
2013-07-19 20:21:00,83.7,76.1,30.09,South,181,3.6,3.6,78,0.00,,---,0.00,VWS V14.01,2013-07-20 00:21:00,
2013-07-19 20:22:00,83.7,76.1,30.09,South,181,3.6,3.6,78,0.00,,---,0.00,VWS V14.01,2013-07-20 00:22:00,
2013-07-19 20:23:00,83.7,76.1,30.09,South,181,3.6,3.6,78,0.00,,---,0.00,VWS V14.01,2013-07-20 00:23:00,
2013-07-19 20:25:00,82.9,75.4,30.09,South,181,3.6,3.6,78,0.00,,---,0.00,VWS V14.01,2013-07-20 00:25:00,
2013-07-19 20:26:00,82.9,75.4,30.09,South,181,3.6,3.6,78,0.00,,---,0.00,VWS V14.01,2013-07-20 00:26:00,
2013-07-19 20:27:00,82.9,75.4,30.09,South,181,3.6,3.6,78,0.00,,---,0.00,VWS V14.01,2013-07-20 00:27:00,
2013-07-19 20:28:00,82.9,75.4,30.09,South,181,3.6,3.6,78,0.00,,---,0.00,VWS V14.01,2013-07-20 00:28:00,
2013-07-19 20:30:00,82.9,75.4,30.09,South,181,3.6,3.6,78,0.00,,---,0.00,VWS V14.01,2013-07-20 00:30:00,
2013-07-19 20:31:00,82.9,75.4,30.09,SSE,162,2.7,3.6,78,0.00,,---,0.00,VWS V14.01,2013-07-20 00:31:00,
2013-07-19 20:32:00,82.9,75.4,30.09,SSE,162,2.7,3.6,78,0.00,,---,0.00,VWS V14.01,2013-07-20 00:32:00,
2013-07-19 20:33:00,82.9,75.4,30.09,SSE,162,2.7,2.7,78,0.00,,---,0.00,VWS V14.01,2013-07-20 00:33:00,
2013-07-19 20:36:00,82.9,75.4,30.09,South,180,2.2,2.2,78,0.00,,---,0.00,VWS V14.01,2013-07-20 00:36:00,
2013-07-19 20:37:00,82.9,75.4,30.09,South,180,2.2,2.2,78,0.00,,---,0.00,VWS V14.01,2013-07-20 00:37:00,
2013-07-19 20:38:00,82.9,75.4,30.09,South,180,2.2,2.2,78,0.00,,---,0.00,VWS V14.01,2013-07-20 00:38:00,
2013-07-19 20:41:00,82.9,75.4,30.09,South,180,2.2,2.2,78,0.00,,---,0.00,VWS V14.01,2013-07-20 00:41:00,
2013-07-19 20:42:00,82.9,75.4,30.09,South,180,2.2,2.2,78,0.00,,---,0.00,VWS V14.01,2013-07-20 00:42:00,
2013-07-19 20:43:00,82.9,75.4,30.09,SE,128,2.7,2.7,78,0.00,,---,0.00,VWS V14.01,2013-07-20 00:43:00,
2013-07-19 20:46:00,82.9,75.4,30.09,SE,128,2.7,2.7,78,0.00,,---,0.00,VWS V14.01,2013-07-20 00:46:00,
2013-07-19 20:47:00,82.9,75.4,30.09,SE,128,2.7,2.7,78,0.00,,---,0.00,VWS V14.01,2013-07-20 00:47:00,
2013-07-19 20:48:00,82.9,75.4,30.09,South,170,4.0,4.0,78,0.00,,---,0.00,VWS V14.01,2013-07-20 00:48:00,
2013-07-19 20:51:00,82.6,75.8,30.09,South,170,4.0,4.0,80,0.00,,---,0.00,VWS V14.01,2013-07-20 00:51:00,
2013-07-19 20:52:00,82.6,75.8,30.09,South,170,4.0,4.0,80,0.00,,---,0.00,VWS V14.01,2013-07-20 00:52:00,